GFSMA_prec_pwat_000.txt.gz
Precipitable_Water
0.92 0.90 0.85 0.82 0.83 0.88 0.88 0.88 0.87 0.78 0.67 0.64 0.67 0.66 0.62 0.62 0.63 0.60 0.60 0.53 0.53 0.54 0.57 0.61 0.69 0.84 0.99 1.11 1.23 1.29 1.39 1.53 1.56 1.53 1.48 1.46 1.42 1.36 1.25 1.14 1.13 1.04 1.02
0.85 0.80 0.76 0.74 0.76 0.80 0.84 0.84 0.80 0.71 0.66 0.64 0.64 0.66 0.63 0.63 0.65 0.63 0.61 0.63 0.55 0.58 0.59 0.61 0.63 0.69 0.80 0.96 1.10 1.19 1.28 1.42 1.52 1.55 1.55 1.51 1.50 1.45 1.42 1.34 1.24 1.18 1.15
0.80 0.77 0.75 0.75 0.76 0.78 0.81 0.84 0.80 0.73 0.66 0.64 0.62 0.65 0.64 0.65 0.63 0.62 0.61 0.60 0.63 0.59 0.59 0.61 0.65 0.65 0.63 0.67 0.82 1.01 1.15 1.23 1.33 1.47 1.51 1.51 1.51 1.53 1.50 1.49 1.40 1.32 1.28
0.82 0.79 0.77 0.74 0.74 0.76 0.77 0.76 0.74 0.69 0.66 0.59 0.55 0.57 0.59 0.60 0.60 0.61 0.62 0.60 0.61 0.61 0.64 0.60 0.62 0.62 0.64 0.65 0.63 0.65 0.84 1.08 1.14 1.21 1.31 1.43 1.46 1.46 1.48 1.52 1.55 1.48 1.43
0.78 0.76 0.73 0.72 0.76 0.72 0.68 0.69 0.69 0.67 0.62 0.57 0.56 0.56 0.57 0.56 0.56 0.57 0.57 0.60 0.61 0.59 0.60 0.63 0.59 0.60 0.62 0.62 0.61 0.62 0.64 0.74 1.00 1.11 1.14 1.20 1.32 1.42 1.46 1.49 1.55 1.57 1.56
0.74 0.75 0.74 0.75 0.78 0.77 0.73 0.71 0.68 0.67 0.64 0.59 0.54 0.51 0.54 0.58 0.58 0.55 0.55 0.56 0.56 0.62 0.61 0.62 0.63 0.65 0.58 0.56 0.57 0.59 0.64 0.65 0.66 0.85 1.06 1.15 1.21 1.30 1.42 1.44 1.48 1.54 1.56
0.75 0.74 0.72 0.73 0.72 0.69 0.69 0.69 0.66 0.66 0.64 0.66 0.59 0.54 0.54 0.58 0.60 0.56 0.57 0.55 0.53 0.59 0.62 0.64 0.58 0.56 0.58 0.53 0.51 0.56 0.58 0.65 0.67 0.68 0.77 0.88 1.00 1.14 1.30 1.41 1.44 1.51 1.46
0.70 0.65 0.63 0.62 0.60 0.58 0.59 0.59 0.59 0.58 0.62 0.66 0.58 0.56 0.47 0.50 0.56 0.58 0.56 0.53 0.56 0.58 0.60 0.63 0.55 0.53 0.52 0.51 0.54 0.51 0.52 0.56 0.62 0.68 0.70 0.77 0.75 0.83 0.91 1.15 1.33 1.39 1.41
0.63 0.59 0.55 0.53 0.51 0.49 0.47 0.49 0.52 0.51 0.49 0.58 0.65 0.58 0.47 0.44 0.51 0.54 0.58 0.56 0.55 0.57 0.58 0.57 0.51 0.50 0.50 0.52 0.51 0.52 0.52 0.51 0.55 0.63 0.64 0.72 0.74 0.72 0.75 0.81 0.96 1.22 1.35
0.57 0.52 0.47 0.46 0.46 0.45 0.44 0.45 0.46 0.48 0.50 0.45 0.55 0.60 0.64 0.57 0.49 0.47 0.56 0.59 0.58 0.57 0.57 0.53 0.52 0.52 0.53 0.50 0.47 0.47 0.46 0.49 0.54 0.57 0.60 0.61 0.65 0.70 0.72 0.75 0.80 0.85 1.14
0.47 0.48 0.48 0.46 0.45 0.44 0.43 0.44 0.44 0.45 0.47 0.46 0.48 0.50 0.51 0.60 0.57 0.52 0.47 0.53 0.57 0.56 0.50 0.50 0.54 0.55 0.56 0.53 0.51 0.55 0.50 0.47 0.50 0.55 0.56 0.57 0.63 0.69 0.73 0.73 0.76 0.77 0.80
0.48 0.48 0.47 0.45 0.45 0.44 0.43 0.43 0.45 0.45 0.45 0.47 0.48 0.48 0.46 0.43 0.45 0.45 0.44 0.49 0.51 0.52 0.50 0.52 0.52 0.54 0.57 0.55 0.53 0.49 0.48 0.48 0.47 0.50 0.51 0.54 0.60 0.67 0.67 0.67 0.68 0.76 0.78
0.44 0.44 0.44 0.43 0.43 0.44 0.45 0.47 0.49 0.50 0.48 0.46 0.47 0.48 0.51 0.52 0.53 0.52 0.49 0.47 0.47 0.52 0.52 0.52 0.51 0.53 0.54 0.55 0.52 0.53 0.49 0.45 0.47 0.49 0.49 0.50 0.52 0.55 0.60 0.65 0.66 0.69 0.72
0.42 0.43 0.43 0.45 0.48 0.49 0.51 0.53 0.53 0.52 0.53 0.51 0.50 0.50 0.49 0.52 0.53 0.51 0.48 0.46 0.44 0.46 0.51 0.50 0.53 0.52 0.51 0.49 0.50 0.47 0.45 0.44 0.45 0.47 0.49 0.50 0.53 0.49 0.51 0.55 0.58 0.57 0.56
0.43 0.44 0.48 0.47 0.45 0.47 0.48 0.48 0.49 0.50 0.50 0.50 0.49 0.50 0.49 0.50 0.48 0.48 0.50 0.47 0.42 0.36 0.38 0.44 0.44 0.50 0.47 0.47 0.47 0.45 0.47 0.48 0.48 0.43 0.46 0.47 0.46 0.48 0.45 0.46 0.46 0.48 0.49
0.48 0.46 0.44 0.45 0.46 0.47 0.49 0.48 0.48 0.49 0.47 0.45 0.44 0.42 0.40 0.40 0.41 0.42 0.41 0.41 0.40 0.36 0.32 0.35 0.34 0.36 0.38 0.38 0.41 0.40 0.40 0.41 0.41 0.39 0.36 0.39 0.42 0.44 0.44 0.43 0.42 0.42 0.45
0.45 0.45 0.45 0.45 0.47 0.48 0.50 0.50 0.48 0.46 0.41 0.40 0.39 0.37 0.35 0.35 0.34 0.33 0.32 0.32 0.31 0.31 0.27 0.28 0.31 0.32 0.32 0.33 0.35 0.37 0.37 0.37 0.39 0.40 0.37 0.32 0.33 0.35 0.39 0.40 0.42 0.42 0.43
0.48 0.46 0.47 0.48 0.48 0.48 0.47 0.44 0.42 0.40 0.37 0.34 0.34 0.34 0.32 0.29 0.27 0.27 0.28 0.28 0.29 0.30 0.28 0.25 0.28 0.28 0.29 0.30 0.32 0.33 0.33 0.33 0.33 0.34 0.35 0.35 0.33 0.31 0.32 0.34 0.37 0.41 0.44
0.47 0.48 0.47 0.46 0.46 0.45 0.44 0.41 0.37 0.35 0.35 0.35 0.34 0.31 0.28 0.27 0.26 0.27 0.27 0.27 0.27 0.26 0.26 0.25 0.24 0.26 0.26 0.27 0.26 0.28 0.29 0.30 0.31 0.30 0.31 0.34 0.33 0.30 0.29 0.29 0.31 0.33 0.38
0.42 0.41 0.40 0.39 0.38 0.35 0.34 0.33 0.32 0.33 0.32 0.30 0.29 0.28 0.27 0.26 0.25 0.25 0.24 0.24 0.23 0.22 0.21 0.20 0.20 0.20 0.22 0.24 0.24 0.24 0.24 0.27 0.27 0.29 0.29 0.28 0.29 0.31 0.32 0.30 0.27 0.28 0.31
0.28 0.27 0.25 0.25 0.25 0.25 0.25 0.26 0.24 0.26 0.27 0.27 0.27 0.27 0.26 0.26 0.25 0.24 0.22 0.20 0.20 0.19 0.20 0.21 0.21 0.21 0.21 0.22 0.23 0.24 0.24 0.26 0.27 0.29 0.29 0.29 0.29 0.29 0.28 0.26 0.24 0.26 0.25
0.23 0.23 0.22 0.21 0.21 0.22 0.24 0.23 0.23 0.22 0.23 0.23 0.23 0.24 0.24 0.24 0.23 0.22 0.22 0.22 0.22 0.20 0.20 0.20 0.21 0.20 0.21 0.23 0.26 0.25 0.25 0.24 0.22 0.29 0.28 0.27 0.30 0.29 0.30 0.30 0.30 0.31 0.30
0.21 0.20 0.20 0.21 0.22 0.22 0.22 0.21 0.21 0.20 0.20 0.21 0.22 0.23 0.22 0.21 0.21 0.21 0.22 0.23 0.23 0.24 0.24 0.24 0.22 0.24 0.25 0.28 0.29 0.28 0.27 0.26 0.25 0.27 0.29 0.27 0.32 0.31 0.34 0.33 0.31 0.30 0.29
0.19 0.20 0.21 0.21 0.22 0.23 0.22 0.22 0.21 0.21 0.22 0.22 0.23 0.22 0.21 0.21 0.22 0.23 0.23 0.23 0.24 0.25 0.27 0.29 0.28 0.28 0.29 0.30 0.30 0.30 0.29 0.30 0.31 0.30 0.31 0.25 0.30 0.29 0.32 0.34 0.32 0.33 0.32
0.20 0.21 0.23 0.23 0.23 0.23 0.24 0.22 0.21 0.21 0.21 0.21 0.22 0.22 0.22 0.22 0.24 0.25 0.24 0.24 0.25 0.26 0.30 0.32 0.31 0.31 0.32 0.33 0.33 0.32 0.30 0.28 0.26 0.27 0.31 0.28 0.29 0.29 0.29 0.30 0.33 0.33 0.35
0.21 0.24 0.25 0.26 0.24 0.23 0.24 0.22 0.21 0.20 0.20 0.20 0.22 0.22 0.24 0.24 0.24 0.26 0.26 0.26 0.24 0.26 0.29 0.31 0.31 0.35 0.35 0.33 0.33 0.33 0.32 0.28 0.28 0.27 0.31 0.28 0.28 0.29 0.26 0.30 0.30 0.32 0.32

GFSMA_prec_pwat_003.txt.gz
Precipitable_Water
0.92 0.90 0.87 0.84 0.81 0.83 0.86 0.86 0.84 0.82 0.74 0.68 0.65 0.68 0.67 0.65 0.64 0.63 0.65 0.64 0.55 0.56 0.58 0.60 0.64 0.68 0.75 0.84 0.98 1.10 1.23 1.30 1.41 1.52 1.50 1.48 1.44 1.40 1.40 1.36 1.31 1.20 1.08
0.89 0.85 0.80 0.79 0.79 0.79 0.79 0.78 0.78 0.75 0.68 0.63 0.60 0.62 0.64 0.62 0.64 0.67 0.64 0.68 0.61 0.60 0.65 0.64 0.65 0.68 0.70 0.74 0.81 0.95 1.11 1.21 1.26 1.38 1.62 1.49 1.45 1.47 1.44 1.43 1.35 1.22 1.17
0.84 0.84 0.83 0.84 0.83 0.82 0.80 0.81 0.80 0.80 0.76 0.70 0.61 0.60 0.61 0.61 0.60 0.60 0.61 0.60 0.65 0.61 0.61 0.65 0.66 0.64 0.64 0.66 0.67 0.74 0.87 1.02 1.18 1.22 1.37 1.52 1.52 1.47 1.46 1.48 1.43 1.33 1.25
0.88 0.86 0.81 0.79 0.81 0.81 0.81 0.78 0.76 0.76 0.75 0.72 0.68 0.63 0.59 0.59 0.58 0.58 0.58 0.56 0.56 0.62 0.62 0.59 0.61 0.61 0.62 0.63 0.63 0.63 0.65 0.76 0.91 1.12 1.19 1.32 1.56 1.50 1.48 1.47 1.49 1.50 1.40
0.86 0.85 0.83 0.82 0.85 0.85 0.83 0.80 0.77 0.74 0.72 0.72 0.69 0.66 0.61 0.58 0.60 0.59 0.57 0.58 0.56 0.54 0.59 0.64 0.58 0.56 0.57 0.58 0.59 0.60 0.62 0.63 0.69 0.82 0.99 1.15 1.27 1.42 1.43 1.42 1.49 1.49 1.51
0.88 0.86 0.85 0.86 0.86 0.83 0.81 0.79 0.76 0.75 0.72 0.69 0.66 0.63 0.63 0.61 0.58 0.60 0.60 0.58 0.58 0.60 0.57 0.61 0.58 0.54 0.55 0.55 0.52 0.53 0.59 0.64 0.65 0.65 0.77 0.91 1.09 1.20 1.27 1.39 1.42 1.47 1.50
0.82 0.79 0.78 0.78 0.77 0.73 0.70 0.68 0.65 0.61 0.62 0.64 0.63 0.66 0.65 0.63 0.63 0.61 0.60 0.60 0.58 0.59 0.60 0.62 0.64 0.61 0.59 0.53 0.50 0.49 0.52 0.57 0.64 0.67 0.69 0.75 0.79 0.93 1.15 1.23 1.31 1.37 1.43
0.81 0.79 0.77 0.69 0.66 0.60 0.58 0.58 0.58 0.57 0.59 0.59 0.55 0.55 0.50 0.55 0.62 0.68 0.68 0.67 0.60 0.58 0.57 0.62 0.67 0.64 0.58 0.55 0.52 0.52 0.49 0.50 0.53 0.59 0.65 0.69 0.78 0.73 0.74 0.94 1.14 1.24 1.32
0.79 0.73 0.67 0.63 0.60 0.60 0.57 0.57 0.55 0.53 0.50 0.54 0.57 0.51 0.46 0.43 0.51 0.55 0.65 0.72 0.70 0.68 0.61 0.59 0.64 0.62 0.56 0.53 0.55 0.51 0.49 0.47 0.47 0.50 0.59 0.64 0.71 0.74 0.74 0.73 0.79 1.03 1.19
0.66 0.61 0.59 0.59 0.60 0.57 0.53 0.50 0.49 0.49 0.45 0.41 0.47 0.48 0.50 0.52 0.49 0.48 0.58 0.67 0.72 0.68 0.67 0.68 0.67 0.61 0.54 0.52 0.54 0.56 0.54 0.52 0.50 0.51 0.51 0.57 0.62 0.71 0.73 0.74 0.76 0.82 0.91
0.60 0.57 0.55 0.56 0.52 0.49 0.49 0.48 0.48 0.49 0.49 0.47 0.46 0.47 0.49 0.48 0.51 0.50 0.44 0.53 0.70 0.73 0.72 0.72 0.72 0.59 0.58 0.59 0.55 0.52 0.53 0.52 0.51 0.54 0.53 0.51 0.54 0.59 0.67 0.72 0.75 0.79 0.80
0.53 0.52 0.51 0.53 0.52 0.52 0.52 0.50 0.52 0.52 0.52 0.49 0.48 0.46 0.44 0.41 0.40 0.42 0.40 0.43 0.50 0.65 0.74 0.72 0.67 0.65 0.64 0.63 0.60 0.58 0.54 0.53 0.52 0.54 0.54 0.53 0.52 0.53 0.63 0.71 0.73 0.71 0.76
0.49 0.50 0.53 0.53 0.50 0.51 0.52 0.55 0.56 0.56 0.54 0.51 0.49 0.46 0.47 0.48 0.49 0.47 0.44 0.43 0.46 0.55 0.66 0.73 0.69 0.68 0.60 0.62 0.59 0.56 0.50 0.48 0.50 0.52 0.52 0.53 0.51 0.50 0.54 0.59 0.65 0.69 0.74
0.49 0.49 0.49 0.50 0.50 0.51 0.50 0.51 0.51 0.52 0.50 0.50 0.48 0.48 0.47 0.47 0.50 0.50 0.47 0.44 0.39 0.45 0.54 0.55 0.60 0.62 0.65 0.59 0.59 0.55 0.55 0.51 0.48 0.49 0.50 0.51 0.51 0.47 0.47 0.50 0.54 0.58 0.60
0.45 0.47 0.49 0.47 0.46 0.47 0.48 0.48 0.48 0.49 0.49 0.50 0.49 0.49 0.47 0.47 0.48 0.47 0.46 0.46 0.42 0.36 0.38 0.45 0.49 0.58 0.60 0.59 0.53 0.51 0.51 0.54 0.50 0.47 0.46 0.49 0.49 0.48 0.45 0.45 0.45 0.46 0.48
0.47 0.45 0.45 0.48 0.48 0.49 0.49 0.49 0.48 0.48 0.48 0.47 0.47 0.44 0.42 0.41 0.40 0.41 0.43 0.45 0.45 0.40 0.34 0.40 0.38 0.43 0.44 0.44 0.46 0.48 0.50 0.49 0.51 0.48 0.46 0.45 0.44 0.45 0.45 0.44 0.43 0.42 0.42
0.44 0.46 0.45 0.45 0.46 0.46 0.48 0.47 0.46 0.45 0.45 0.46 0.44 0.42 0.40 0.40 0.37 0.34 0.34 0.33 0.33 0.34 0.30 0.31 0.34 0.35 0.36 0.37 0.39 0.42 0.43 0.44 0.44 0.43 0.41 0.39 0.36 0.36 0.38 0.39 0.40 0.39 0.40
0.43 0.43 0.43 0.44 0.46 0.48 0.48 0.46 0.44 0.41 0.39 0.38 0.39 0.39 0.38 0.38 0.36 0.34 0.32 0.30 0.29 0.29 0.28 0.26 0.30 0.32 0.34 0.36 0.36 0.37 0.38 0.40 0.40 0.39 0.40 0.39 0.39 0.35 0.31 0.33 0.35 0.36 0.37
0.38 0.39 0.39 0.39 0.38 0.38 0.36 0.35 0.34 0.35 0.36 0.35 0.34 0.34 0.33 0.32 0.31 0.30 0.31 0.30 0.30 0.30 0.29 0.28 0.27 0.29 0.30 0.31 0.31 0.33 0.34 0.35 0.36 0.37 0.38 0.38 0.38 0.39 0.35 0.31 0.30 0.32 0.33
0.31 0.29 0.28 0.27 0.27 0.26 0.25 0.26 0.26 0.25 0.23 0.25 0.27 0.28 0.28 0.28 0.28 0.28 0.28 0.28 0.28 0.27 0.26 0.25 0.24 0.24 0.24 0.25 0.26 0.26 0.26 0.29 0.29 0.31 0.32 0.31 0.32 0.34 0.34 0.33 0.29 0.27 0.27
0.27 0.25 0.25 0.24 0.24 0.24 0.25 0.25 0.24 0.21 0.21 0.21 0.22 0.23 0.25 0.27 0.27 0.26 0.25 0.24 0.24 0.23 0.23 0.22 0.22 0.22 0.23 0.24 0.24 0.27 0.26 0.28 0.29 0.31 0.31 0.31 0.32 0.33 0.32 0.30 0.29 0.28 0.26
0.24 0.24 0.23 0.24 0.24 0.24 0.26 0.24 0.23 0.22 0.20 0.20 0.20 0.22 0.23 0.24 0.26 0.26 0.26 0.25 0.23 0.20 0.20 0.21 0.20 0.21 0.22 0.24 0.25 0.25 0.26 0.25 0.23 0.30 0.28 0.28 0.33 0.32 0.33 0.36 0.38 0.35 0.31
0.25 0.23 0.24 0.24 0.24 0.25 0.27 0.25 0.24 0.22 0.21 0.20 0.21 0.22 0.23 0.23 0.23 0.23 0.23 0.24 0.25 0.25 0.24 0.22 0.19 0.19 0.20 0.22 0.25 0.25 0.26 0.27 0.26 0.29 0.29 0.26 0.32 0.33 0.34 0.34 0.35 0.37 0.36
0.24 0.24 0.24 0.25 0.25 0.26 0.27 0.26 0.25 0.23 0.22 0.22 0.23 0.23 0.23 0.23 0.23 0.24 0.24 0.24 0.23 0.23 0.24 0.25 0.25 0.24 0.25 0.27 0.28 0.28 0.29 0.29 0.30 0.32 0.33 0.26 0.31 0.30 0.33 0.35 0.35 0.33 0.35
0.25 0.24 0.24 0.25 0.25 0.26 0.26 0.27 0.24 0.22 0.21 0.21 0.22 0.23 0.24 0.23 0.21 0.22 0.22 0.21 0.22 0.23 0.26 0.28 0.28 0.28 0.29 0.30 0.31 0.32 0.29 0.29 0.26 0.27 0.30 0.28 0.29 0.29 0.32 0.30 0.33 0.32 0.31
0.25 0.26 0.26 0.26 0.26 0.25 0.28 0.26 0.24 0.22 0.21 0.22 0.23 0.23 0.23 0.24 0.25 0.24 0.24 0.23 0.22 0.24 0.26 0.28 0.30 0.33 0.36 0.35 0.34 0.32 0.30 0.27 0.27 0.26 0.30 0.29 0.29 0.28 0.26 0.32 0.32 0.33 0.34

GFSMA_prec_pwat_006.txt.gz
Precipitable_Water
0.87 0.84 0.81 0.78 0.78 0.80 0.79 0.78 0.77 0.78 0.78 0.72 0.65 0.59 0.59 0.61 0.59 0.58 0.60 0.65 0.63 0.61 0.59 0.66 0.69 0.69 0.71 0.73 0.79 0.87 0.98 1.06 1.20 1.31 1.30 1.42 1.48 1.43 1.38 1.39 1.41 1.39 1.38
0.85 0.81 0.77 0.78 0.78 0.81 0.81 0.77 0.76 0.78 0.78 0.77 0.71 0.66 0.60 0.60 0.58 0.58 0.59 0.63 0.60 0.58 0.56 0.61 0.67 0.70 0.72 0.75 0.76 0.78 0.85 0.95 1.10 1.24 1.31 1.44 1.43 1.47 1.45 1.41 1.42 1.38 1.33
0.86 0.84 0.83 0.83 0.85 0.85 0.82 0.78 0.79 0.79 0.76 0.78 0.75 0.73 0.69 0.64 0.62 0.59 0.58 0.58 0.58 0.55 0.56 0.56 0.59 0.66 0.69 0.68 0.70 0.74 0.78 0.84 0.94 1.08 1.24 1.29 1.39 1.36 1.45 1.46 1.46 1.45 1.38
0.92 0.87 0.85 0.83 0.85 0.86 0.82 0.81 0.76 0.74 0.74 0.72 0.70 0.71 0.70 0.69 0.65 0.63 0.62 0.59 0.59 0.57 0.56 0.56 0.55 0.56 0.56 0.59 0.61 0.63 0.66 0.73 0.81 0.92 1.03 1.19 1.27 1.32 1.37 1.46 1.49 1.49 1.44
0.91 0.88 0.85 0.84 0.84 0.84 0.84 0.82 0.80 0.79 0.79 0.75 0.70 0.67 0.65 0.69 0.69 0.65 0.62 0.60 0.59 0.60 0.62 0.57 0.56 0.55 0.52 0.55 0.55 0.56 0.58 0.62 0.67 0.76 0.85 0.97 1.14 1.22 1.36 1.52 1.51 1.49 1.50
0.93 0.86 0.83 0.82 0.86 0.85 0.80 0.77 0.77 0.74 0.63 0.59 0.61 0.61 0.62 0.59 0.61 0.61 0.63 0.63 0.65 0.63 0.62 0.64 0.63 0.59 0.55 0.53 0.52 0.52 0.53 0.55 0.59 0.64 0.69 0.82 0.91 1.03 1.19 1.29 1.35 1.40 1.52
0.86 0.84 0.81 0.81 0.77 0.73 0.72 0.68 0.62 0.56 0.56 0.59 0.55 0.54 0.53 0.56 0.63 0.69 0.74 0.75 0.70 0.66 0.66 0.63 0.64 0.62 0.57 0.54 0.52 0.51 0.50 0.52 0.55 0.59 0.64 0.69 0.80 0.86 0.95 1.14 1.28 1.32 1.48
0.87 0.87 0.83 0.75 0.73 0.69 0.63 0.61 0.62 0.57 0.53 0.53 0.48 0.47 0.40 0.43 0.50 0.53 0.55 0.64 0.72 0.78 0.71 0.73 0.74 0.72 0.67 0.65 0.60 0.54 0.50 0.51 0.51 0.53 0.54 0.60 0.69 0.81 0.80 0.82 1.01 1.21 1.34
0.87 0.76 0.69 0.66 0.64 0.60 0.55 0.51 0.51 0.49 0.47 0.49 0.52 0.49 0.40 0.36 0.42 0.47 0.47 0.52 0.58 0.70 0.86 0.85 0.86 0.76 0.74 0.71 0.64 0.56 0.54 0.51 0.49 0.47 0.48 0.51 0.58 0.66 0.77 0.77 0.76 0.79 1.01
0.67 0.64 0.62 0.60 0.57 0.57 0.52 0.52 0.54 0.52 0.50 0.44 0.48 0.50 0.49 0.48 0.38 0.34 0.43 0.46 0.51 0.56 0.74 0.78 0.85 0.87 0.81 0.75 0.66 0.61 0.57 0.53 0.53 0.51 0.51 0.51 0.53 0.55 0.68 0.72 0.74 0.76 0.79
0.64 0.61 0.57 0.56 0.56 0.53 0.52 0.53 0.53 0.52 0.52 0.51 0.49 0.46 0.44 0.44 0.46 0.40 0.31 0.37 0.44 0.52 0.57 0.75 0.85 0.85 0.86 0.72 0.73 0.67 0.63 0.60 0.57 0.55 0.55 0.55 0.55 0.52 0.53 0.65 0.70 0.72 0.76
0.60 0.58 0.58 0.55 0.55 0.55 0.53 0.56 0.58 0.57 0.54 0.52 0.50 0.49 0.45 0.38 0.35 0.36 0.33 0.32 0.33 0.37 0.48 0.53 0.73 0.78 0.85 0.81 0.75 0.71 0.65 0.61 0.59 0.57 0.56 0.60 0.57 0.57 0.52 0.54 0.60 0.69 0.72
0.59 0.55 0.55 0.53 0.53 0.54 0.54 0.52 0.50 0.53 0.50 0.46 0.46 0.45 0.46 0.44 0.42 0.41 0.39 0.36 0.34 0.38 0.40 0.47 0.53 0.67 0.77 0.80 0.77 0.75 0.72 0.65 0.59 0.59 0.56 0.58 0.60 0.58 0.58 0.58 0.61 0.64 0.66
0.55 0.55 0.53 0.49 0.48 0.47 0.47 0.45 0.45 0.46 0.48 0.46 0.45 0.46 0.45 0.44 0.45 0.43 0.40 0.37 0.32 0.35 0.38 0.42 0.51 0.56 0.67 0.75 0.75 0.72 0.68 0.62 0.57 0.57 0.55 0.53 0.56 0.51 0.54 0.56 0.57 0.59 0.62
0.53 0.48 0.46 0.42 0.45 0.44 0.44 0.46 0.46 0.46 0.46 0.47 0.47 0.47 0.46 0.46 0.44 0.44 0.43 0.42 0.39 0.30 0.31 0.37 0.43 0.51 0.54 0.65 0.67 0.69 0.63 0.60 0.55 0.53 0.50 0.48 0.51 0.50 0.48 0.48 0.50 0.52 0.54
0.41 0.38 0.40 0.40 0.42 0.43 0.45 0.46 0.45 0.46 0.45 0.45 0.47 0.47 0.48 0.47 0.47 0.45 0.44 0.42 0.40 0.35 0.28 0.37 0.38 0.39 0.45 0.49 0.59 0.60 0.59 0.56 0.53 0.53 0.50 0.49 0.48 0.47 0.48 0.47 0.46 0.47 0.47
0.33 0.33 0.34 0.36 0.38 0.40 0.43 0.41 0.41 0.42 0.41 0.39 0.40 0.42 0.43 0.45 0.44 0.44 0.43 0.40 0.36 0.34 0.29 0.30 0.33 0.36 0.36 0.39 0.43 0.46 0.50 0.49 0.49 0.48 0.45 0.43 0.42 0.43 0.44 0.45 0.44 0.43 0.43
0.35 0.36 0.36 0.35 0.35 0.35 0.34 0.35 0.34 0.35 0.33 0.35 0.37 0.36 0.35 0.35 0.35 0.35 0.36 0.35 0.34 0.34 0.31 0.27 0.29 0.29 0.30 0.34 0.36 0.38 0.40 0.44 0.45 0.46 0.45 0.44 0.42 0.40 0.40 0.39 0.37 0.39 0.40
0.33 0.32 0.30 0.27 0.25 0.24 0.24 0.24 0.25 0.26 0.26 0.26 0.24 0.23 0.24 0.27 0.27 0.27 0.26 0.28 0.30 0.32 0.32 0.30 0.29 0.30 0.29 0.29 0.30 0.33 0.35 0.37 0.39 0.40 0.41 0.40 0.40 0.40 0.40 0.38 0.36 0.34 0.36
0.28 0.27 0.26 0.26 0.25 0.25 0.25 0.26 0.26 0.25 0.24 0.22 0.20 0.18 0.20 0.23 0.26 0.28 0.29 0.28 0.27 0.27 0.28 0.26 0.25 0.25 0.25 0.26 0.26 0.24 0.24 0.28 0.30 0.33 0.34 0.35 0.37 0.37 0.37 0.37 0.34 0.33 0.31
0.26 0.26 0.25 0.25 0.25 0.25 0.26 0.26 0.24 0.24 0.24 0.23 0.22 0.21 0.21 0.22 0.23 0.25 0.25 0.27 0.26 0.22 0.21 0.21 0.21 0.22 0.22 0.23 0.24 0.30 0.31 0.32 0.32 0.34 0.34 0.32 0.34 0.37 0.39 0.38 0.36 0.35 0.32
0.27 0.27 0.26 0.25 0.24 0.26 0.28 0.27 0.26 0.26 0.25 0.24 0.22 0.22 0.22 0.22 0.23 0.26 0.27 0.26 0.25 0.21 0.19 0.19 0.19 0.19 0.20 0.23 0.25 0.27 0.28 0.27 0.25 0.33 0.30 0.29 0.33 0.31 0.33 0.37 0.40 0.42 0.40
0.27 0.27 0.25 0.26 0.26 0.27 0.28 0.28 0.27 0.26 0.25 0.23 0.21 0.22 0.22 0.24 0.26 0.27 0.28 0.28 0.27 0.28 0.27 0.25 0.22 0.21 0.20 0.20 0.22 0.22 0.24 0.25 0.26 0.30 0.29 0.25 0.30 0.29 0.33 0.35 0.39 0.39 0.37
0.28 0.25 0.27 0.28 0.28 0.27 0.27 0.26 0.26 0.26 0.24 0.22 0.22 0.22 0.21 0.22 0.25 0.26 0.26 0.25 0.25 0.25 0.25 0.26 0.25 0.24 0.26 0.26 0.25 0.25 0.25 0.25 0.26 0.27 0.30 0.25 0.30 0.28 0.31 0.33 0.34 0.34 0.34
0.25 0.27 0.28 0.29 0.27 0.26 0.25 0.28 0.29 0.26 0.25 0.23 0.23 0.25 0.26 0.23 0.23 0.24 0.23 0.21 0.21 0.21 0.23 0.24 0.26 0.28 0.29 0.29 0.29 0.28 0.24 0.24 0.24 0.27 0.31 0.28 0.28 0.28 0.30 0.29 0.31 0.31 0.31
0.26 0.28 0.27 0.27 0.26 0.23 0.28 0.29 0.29 0.26 0.23 0.23 0.25 0.24 0.24 0.25 0.27 0.27 0.25 0.25 0.22 0.23 0.25 0.24 0.25 0.26 0.27 0.28 0.31 0.33 0.32 0.27 0.25 0.24 0.29 0.27 0.28 0.30 0.27 0.30 0.30 0.30 0.31

GFSMA_prec_pwat_009.txt.gz
Precipitable_Water
0.85 0.83 0.82 0.80 0.78 0.80 0.80 0.78 0.77 0.74 0.75 0.75 0.74 0.70 0.64 0.62 0.61 0.61 0.59 0.58 0.57 0.57 0.58 0.57 0.56 0.64 0.70 0.76 0.78 0.83 0.90 0.96 1.02 1.09 1.21 1.30 1.37 1.42 1.37 1.42 1.40 1.40 1.44
0.86 0.85 0.83 0.83 0.82 0.86 0.87 0.84 0.79 0.76 0.77 0.78 0.74 0.73 0.68 0.65 0.63 0.62 0.63 0.61 0.60 0.57 0.56 0.55 0.56 0.58 0.62 0.66 0.72 0.77 0.82 0.86 0.92 1.02 1.13 1.29 1.29 1.33 1.31 1.38 1.38 1.39 1.40
0.92 0.91 0.90 0.88 0.85 0.86 0.85 0.82 0.80 0.82 0.78 0.77 0.78 0.79 0.76 0.70 0.66 0.65 0.67 0.65 0.62 0.60 0.58 0.55 0.53 0.55 0.57 0.61 0.65 0.68 0.72 0.81 0.87 0.93 1.04 1.16 1.31 1.28 1.29 1.43 1.36 1.39 1.37
0.97 0.93 0.89 0.82 0.85 0.86 0.85 0.84 0.82 0.82 0.78 0.79 0.77 0.80 0.78 0.70 0.70 0.66 0.64 0.64 0.64 0.62 0.62 0.60 0.60 0.58 0.55 0.55 0.58 0.61 0.62 0.65 0.73 0.84 0.91 1.02 1.17 1.28 1.32 1.37 1.44 1.40 1.37
0.93 0.90 0.84 0.80 0.82 0.82 0.82 0.83 0.81 0.77 0.71 0.69 0.66 0.62 0.59 0.61 0.63 0.64 0.61 0.65 0.61 0.61 0.62 0.62 0.63 0.63 0.62 0.60 0.56 0.56 0.58 0.59 0.63 0.68 0.79 0.88 0.99 1.15 1.26 1.31 1.37 1.43 1.45
0.86 0.85 0.86 0.82 0.80 0.78 0.78 0.74 0.71 0.68 0.66 0.62 0.57 0.57 0.60 0.58 0.60 0.55 0.54 0.58 0.67 0.75 0.70 0.65 0.65 0.65 0.66 0.66 0.65 0.60 0.58 0.57 0.58 0.61 0.68 0.75 0.82 0.92 1.09 1.22 1.32 1.38 1.44
0.85 0.83 0.79 0.76 0.73 0.65 0.63 0.62 0.59 0.53 0.51 0.54 0.49 0.46 0.45 0.46 0.45 0.45 0.46 0.51 0.56 0.61 0.67 0.72 0.74 0.76 0.78 0.70 0.69 0.65 0.64 0.61 0.57 0.58 0.60 0.63 0.73 0.81 0.83 1.00 1.19 1.24 1.37
0.87 0.78 0.73 0.69 0.64 0.59 0.58 0.54 0.50 0.48 0.47 0.49 0.43 0.42 0.36 0.39 0.43 0.47 0.50 0.51 0.53 0.57 0.60 0.69 0.71 0.73 0.75 0.80 0.79 0.75 0.68 0.67 0.62 0.59 0.60 0.60 0.60 0.71 0.79 0.83 0.88 1.05 1.22
0.68 0.65 0.64 0.61 0.61 0.60 0.54 0.53 0.53 0.49 0.44 0.49 0.52 0.44 0.35 0.31 0.38 0.44 0.41 0.45 0.45 0.47 0.52 0.54 0.70 0.79 0.77 0.76 0.84 0.76 0.73 0.71 0.66 0.62 0.59 0.58 0.56 0.58 0.67 0.73 0.77 0.78 0.91
0.65 0.65 0.63 0.62 0.60 0.57 0.55 0.54 0.52 0.51 0.50 0.45 0.50 0.52 0.53 0.50 0.39 0.34 0.40 0.39 0.42 0.40 0.44 0.51 0.54 0.66 0.78 0.84 0.82 0.85 0.81 0.77 0.70 0.64 0.57 0.54 0.55 0.58 0.60 0.68 0.70 0.71 0.72
0.66 0.65 0.64 0.61 0.56 0.54 0.52 0.53 0.49 0.48 0.47 0.45 0.46 0.48 0.47 0.45 0.43 0.36 0.28 0.31 0.34 0.34 0.36 0.39 0.44 0.52 0.66 0.77 0.80 0.84 0.87 0.81 0.71 0.66 0.60 0.57 0.58 0.60 0.60 0.67 0.67 0.66 0.71
0.65 0.63 0.62 0.59 0.57 0.53 0.52 0.49 0.48 0.47 0.47 0.46 0.45 0.45 0.42 0.38 0.36 0.36 0.32 0.28 0.28 0.30 0.32 0.34 0.39 0.45 0.50 0.65 0.75 0.75 0.82 0.78 0.75 0.71 0.68 0.63 0.61 0.61 0.64 0.62 0.64 0.66 0.66
0.58 0.56 0.53 0.49 0.47 0.46 0.45 0.44 0.45 0.47 0.48 0.44 0.44 0.42 0.44 0.40 0.43 0.41 0.38 0.34 0.31 0.31 0.32 0.36 0.39 0.46 0.50 0.53 0.62 0.69 0.78 0.81 0.77 0.74 0.71 0.66 0.64 0.63 0.62 0.64 0.65 0.64 0.66
0.54 0.50 0.48 0.46 0.44 0.42 0.42 0.42 0.43 0.44 0.45 0.47 0.47 0.43 0.45 0.44 0.48 0.46 0.41 0.37 0.30 0.31 0.33 0.32 0.38 0.44 0.45 0.51 0.55 0.59 0.64 0.73 0.77 0.73 0.70 0.69 0.65 0.61 0.58 0.57 0.58 0.63 0.65
0.49 0.45 0.42 0.34 0.33 0.34 0.34 0.36 0.36 0.36 0.39 0.41 0.43 0.44 0.44 0.47 0.48 0.49 0.48 0.46 0.40 0.29 0.28 0.33 0.32 0.36 0.40 0.48 0.51 0.54 0.63 0.64 0.70 0.70 0.62 0.61 0.65 0.63 0.58 0.53 0.51 0.52 0.56
0.41 0.34 0.30 0.32 0.33 0.35 0.36 0.37 0.35 0.35 0.35 0.37 0.38 0.39 0.40 0.43 0.46 0.46 0.46 0.45 0.44 0.38 0.29 0.36 0.34 0.35 0.37 0.40 0.46 0.49 0.56 0.62 0.66 0.68 0.63 0.57 0.54 0.52 0.53 0.51 0.49 0.46 0.46
0.32 0.32 0.31 0.31 0.30 0.30 0.29 0.28 0.27 0.27 0.28 0.29 0.30 0.30 0.30 0.33 0.34 0.37 0.39 0.38 0.37 0.37 0.33 0.33 0.34 0.33 0.32 0.32 0.35 0.41 0.48 0.54 0.58 0.60 0.59 0.53 0.50 0.47 0.47 0.47 0.46 0.46 0.45
0.33 0.32 0.28 0.26 0.25 0.25 0.25 0.25 0.25 0.26 0.25 0.24 0.25 0.25 0.23 0.23 0.20 0.22 0.25 0.28 0.31 0.31 0.28 0.27 0.31 0.31 0.30 0.32 0.32 0.32 0.36 0.42 0.47 0.55 0.54 0.49 0.47 0.45 0.43 0.43 0.43 0.43 0.43
0.36 0.31 0.26 0.24 0.24 0.25 0.24 0.25 0.25 0.24 0.24 0.25 0.25 0.24 0.23 0.22 0.18 0.18 0.23 0.24 0.25 0.28 0.27 0.25 0.26 0.30 0.30 0.31 0.30 0.30 0.31 0.35 0.38 0.41 0.43 0.46 0.45 0.43 0.42 0.42 0.41 0.41 0.40
0.34 0.28 0.26 0.24 0.25 0.24 0.25 0.24 0.23 0.23 0.25 0.26 0.25 0.24 0.24 0.22 0.21 0.20 0.21 0.22 0.23 0.25 0.25 0.24 0.23 0.23 0.24 0.27 0.29 0.28 0.25 0.32 0.33 0.37 0.37 0.38 0.39 0.41 0.42 0.40 0.39 0.38 0.38
0.31 0.28 0.28 0.25 0.27 0.25 0.25 0.26 0.27 0.26 0.25 0.24 0.23 0.23 0.22 0.22 0.24 0.25 0.25 0.25 0.25 0.25 0.23 0.20 0.20 0.19 0.19 0.19 0.21 0.25 0.23 0.26 0.29 0.34 0.34 0.36 0.36 0.37 0.37 0.38 0.39 0.39 0.38
0.31 0.31 0.27 0.27 0.25 0.26 0.28 0.29 0.29 0.26 0.24 0.23 0.22 0.21 0.21 0.22 0.24 0.25 0.27 0.29 0.29 0.27 0.24 0.22 0.20 0.18 0.18 0.20 0.21 0.20 0.22 0.23 0.22 0.32 0.32 0.30 0.33 0.31 0.33 0.35 0.36 0.38 0.39
0.33 0.30 0.28 0.25 0.26 0.29 0.30 0.30 0.27 0.25 0.25 0.25 0.23 0.22 0.21 0.23 0.23 0.23 0.25 0.26 0.27 0.28 0.28 0.27 0.24 0.22 0.21 0.22 0.21 0.20 0.21 0.22 0.24 0.28 0.29 0.27 0.31 0.29 0.32 0.33 0.35 0.37 0.37
0.30 0.29 0.25 0.26 0.28 0.27 0.26 0.26 0.26 0.27 0.26 0.26 0.24 0.22 0.23 0.24 0.26 0.25 0.24 0.23 0.24 0.24 0.24 0.24 0.24 0.23 0.23 0.24 0.24 0.24 0.25 0.26 0.26 0.26 0.27 0.21 0.25 0.25 0.28 0.28 0.30 0.33 0.35
0.29 0.27 0.25 0.26 0.24 0.24 0.25 0.25 0.26 0.26 0.25 0.24 0.24 0.25 0.24 0.23 0.24 0.26 0.25 0.24 0.24 0.24 0.25 0.25 0.25 0.27 0.28 0.29 0.29 0.28 0.24 0.22 0.19 0.20 0.24 0.23 0.23 0.24 0.26 0.26 0.29 0.30 0.31
0.29 0.25 0.25 0.25 0.25 0.24 0.23 0.24 0.27 0.25 0.23 0.23 0.25 0.25 0.25 0.26 0.27 0.26 0.24 0.23 0.21 0.21 0.22 0.23 0.24 0.24 0.23 0.23 0.24 0.25 0.25 0.23 0.23 0.21 0.25 0.23 0.23 0.25 0.23 0.28 0.29 0.30 0.30

GFSMA_prec_pwat_012.txt.gz
Precipitable_Water
0.81 0.84 0.86 0.87 0.88 0.90 0.87 0.83 0.82 0.79 0.75 0.77 0.78 0.75 0.75 0.75 0.71 0.70 0.68 0.66 0.66 0.63 0.59 0.56 0.57 0.58 0.59 0.64 0.71 0.75 0.79 0.83 0.86 0.91 1.00 1.07 1.15 1.28 1.40 1.41 1.37 1.35 1.33
0.87 0.87 0.87 0.88 0.88 0.90 0.89 0.85 0.83 0.81 0.79 0.83 0.80 0.80 0.76 0.79 0.81 0.76 0.74 0.70 0.70 0.67 0.64 0.59 0.56 0.54 0.54 0.59 0.62 0.68 0.73 0.77 0.81 0.85 0.87 1.00 1.09 1.31 1.37 1.41 1.38 1.36 1.37
0.96 0.95 0.90 0.84 0.80 0.81 0.81 0.80 0.81 0.84 0.80 0.79 0.73 0.74 0.74 0.75 0.73 0.74 0.68 0.69 0.67 0.65 0.65 0.63 0.61 0.59 0.58 0.56 0.56 0.60 0.66 0.73 0.77 0.80 0.84 0.88 1.00 1.22 1.39 1.38 1.40 1.37 1.35
0.99 0.91 0.83 0.81 0.82 0.80 0.78 0.77 0.72 0.70 0.73 0.74 0.72 0.71 0.71 0.72 0.69 0.65 0.61 0.64 0.64 0.67 0.66 0.65 0.65 0.66 0.65 0.64 0.63 0.60 0.58 0.62 0.68 0.74 0.78 0.81 0.88 1.06 1.26 1.33 1.31 1.37 1.42
0.95 0.90 0.87 0.85 0.83 0.79 0.72 0.69 0.66 0.61 0.58 0.56 0.56 0.54 0.54 0.55 0.55 0.60 0.60 0.61 0.60 0.61 0.65 0.65 0.67 0.70 0.67 0.66 0.67 0.69 0.67 0.61 0.59 0.64 0.69 0.74 0.78 0.87 1.06 1.25 1.33 1.35 1.43
0.91 0.89 0.85 0.83 0.80 0.71 0.67 0.66 0.57 0.54 0.51 0.48 0.43 0.41 0.41 0.42 0.43 0.48 0.50 0.53 0.54 0.58 0.61 0.62 0.63 0.62 0.65 0.68 0.69 0.71 0.71 0.70 0.67 0.63 0.65 0.68 0.73 0.77 0.85 1.03 1.19 1.31 1.40
0.86 0.82 0.81 0.74 0.70 0.65 0.61 0.58 0.56 0.52 0.48 0.50 0.44 0.41 0.42 0.41 0.47 0.47 0.49 0.52 0.53 0.56 0.57 0.57 0.58 0.66 0.64 0.66 0.73 0.74 0.75 0.75 0.73 0.70 0.66 0.65 0.68 0.70 0.76 0.84 0.98 1.14 1.29
0.78 0.72 0.66 0.65 0.64 0.60 0.59 0.58 0.56 0.52 0.52 0.52 0.42 0.40 0.31 0.34 0.40 0.44 0.45 0.45 0.45 0.47 0.47 0.50 0.56 0.57 0.66 0.69 0.64 0.69 0.78 0.75 0.76 0.77 0.74 0.68 0.65 0.64 0.65 0.79 0.83 0.90 1.07
0.69 0.66 0.63 0.61 0.60 0.60 0.56 0.56 0.54 0.49 0.43 0.46 0.48 0.43 0.34 0.31 0.37 0.40 0.38 0.40 0.40 0.41 0.42 0.43 0.46 0.47 0.54 0.58 0.67 0.70 0.68 0.73 0.78 0.78 0.77 0.75 0.67 0.65 0.63 0.69 0.80 0.81 0.82
0.62 0.62 0.61 0.61 0.60 0.61 0.58 0.55 0.51 0.47 0.44 0.39 0.45 0.48 0.47 0.42 0.30 0.27 0.38 0.37 0.36 0.34 0.34 0.36 0.36 0.41 0.49 0.55 0.62 0.65 0.68 0.68 0.69 0.80 0.76 0.78 0.73 0.66 0.59 0.62 0.69 0.74 0.78
0.68 0.64 0.64 0.63 0.58 0.51 0.47 0.46 0.46 0.46 0.46 0.44 0.43 0.42 0.42 0.38 0.39 0.31 0.24 0.29 0.33 0.34 0.33 0.34 0.34 0.37 0.44 0.46 0.53 0.61 0.65 0.69 0.75 0.78 0.77 0.78 0.74 0.67 0.61 0.64 0.65 0.69 0.69
0.67 0.65 0.69 0.61 0.53 0.47 0.44 0.43 0.42 0.43 0.44 0.43 0.44 0.44 0.39 0.36 0.35 0.35 0.31 0.28 0.29 0.31 0.34 0.35 0.35 0.36 0.42 0.44 0.48 0.55 0.61 0.64 0.67 0.77 0.77 0.77 0.73 0.70 0.66 0.67 0.65 0.73 0.71
0.66 0.54 0.52 0.49 0.44 0.41 0.35 0.34 0.33 0.33 0.34 0.36 0.39 0.42 0.43 0.43 0.46 0.42 0.37 0.34 0.32 0.32 0.32 0.36 0.36 0.36 0.38 0.40 0.44 0.47 0.51 0.58 0.61 0.71 0.72 0.75 0.80 0.77 0.72 0.70 0.71 0.68 0.69
0.51 0.47 0.46 0.39 0.32 0.30 0.31 0.31 0.30 0.30 0.32 0.33 0.34 0.35 0.37 0.40 0.44 0.41 0.40 0.37 0.34 0.33 0.34 0.34 0.40 0.38 0.36 0.38 0.43 0.47 0.49 0.55 0.57 0.59 0.69 0.73 0.76 0.74 0.70 0.65 0.65 0.66 0.67
0.46 0.46 0.39 0.30 0.29 0.30 0.31 0.31 0.29 0.26 0.27 0.29 0.30 0.33 0.35 0.38 0.40 0.42 0.43 0.42 0.35 0.28 0.28 0.36 0.35 0.40 0.38 0.37 0.36 0.44 0.46 0.47 0.56 0.56 0.61 0.70 0.75 0.74 0.65 0.60 0.60 0.60 0.59
0.47 0.44 0.36 0.34 0.33 0.31 0.30 0.29 0.27 0.26 0.26 0.27 0.27 0.26 0.25 0.25 0.26 0.27 0.30 0.35 0.37 0.35 0.29 0.35 0.33 0.36 0.36 0.34 0.35 0.35 0.42 0.44 0.53 0.56 0.57 0.63 0.65 0.68 0.71 0.69 0.61 0.57 0.53
0.45 0.43 0.42 0.38 0.31 0.28 0.27 0.25 0.25 0.25 0.23 0.23 0.24 0.24 0.24 0.25 0.24 0.23 0.22 0.22 0.25 0.29 0.28 0.30 0.34 0.33 0.32 0.34 0.33 0.32 0.32 0.40 0.46 0.54 0.57 0.60 0.62 0.63 0.61 0.61 0.64 0.60 0.54
0.47 0.43 0.41 0.34 0.29 0.27 0.27 0.24 0.22 0.23 0.22 0.21 0.22 0.23 0.23 0.24 0.22 0.21 0.21 0.19 0.18 0.19 0.22 0.21 0.28 0.29 0.29 0.30 0.31 0.31 0.31 0.32 0.38 0.45 0.53 0.56 0.60 0.60 0.58 0.52 0.52 0.53 0.52
0.48 0.49 0.35 0.31 0.28 0.28 0.28 0.26 0.23 0.23 0.23 0.25 0.25 0.24 0.23 0.21 0.19 0.19 0.19 0.20 0.20 0.19 0.21 0.21 0.21 0.25 0.27 0.27 0.26 0.29 0.31 0.32 0.34 0.38 0.43 0.49 0.47 0.57 0.57 0.52 0.50 0.48 0.46
0.43 0.40 0.33 0.30 0.30 0.30 0.27 0.25 0.25 0.25 0.25 0.25 0.25 0.23 0.21 0.20 0.19 0.20 0.21 0.22 0.24 0.23 0.22 0.21 0.22 0.22 0.23 0.23 0.23 0.22 0.23 0.29 0.30 0.34 0.38 0.41 0.44 0.43 0.47 0.48 0.46 0.46 0.45
0.41 0.36 0.33 0.33 0.31 0.28 0.27 0.27 0.26 0.25 0.24 0.22 0.22 0.23 0.23 0.23 0.22 0.23 0.24 0.24 0.26 0.25 0.25 0.24 0.22 0.22 0.20 0.19 0.18 0.20 0.21 0.23 0.26 0.29 0.33 0.36 0.37 0.40 0.42 0.42 0.42 0.43 0.43
0.36 0.40 0.35 0.31 0.28 0.27 0.29 0.28 0.26 0.23 0.22 0.22 0.22 0.24 0.23 0.22 0.22 0.24 0.25 0.25 0.26 0.25 0.24 0.24 0.24 0.22 0.21 0.21 0.21 0.19 0.19 0.19 0.17 0.25 0.25 0.29 0.36 0.36 0.38 0.40 0.40 0.39 0.40
0.41 0.34 0.31 0.30 0.27 0.28 0.27 0.26 0.25 0.24 0.23 0.23 0.23 0.23 0.22 0.23 0.24 0.24 0.24 0.25 0.25 0.25 0.26 0.25 0.23 0.24 0.23 0.22 0.22 0.20 0.19 0.20 0.20 0.23 0.25 0.22 0.30 0.30 0.34 0.36 0.36 0.36 0.36
0.35 0.31 0.31 0.29 0.26 0.25 0.26 0.26 0.25 0.23 0.23 0.23 0.24 0.23 0.23 0.25 0.25 0.25 0.26 0.26 0.25 0.26 0.26 0.25 0.24 0.24 0.24 0.24 0.23 0.22 0.22 0.22 0.24 0.25 0.26 0.19 0.24 0.25 0.29 0.30 0.32 0.33 0.34
0.31 0.32 0.30 0.26 0.24 0.22 0.23 0.23 0.22 0.20 0.21 0.22 0.23 0.25 0.26 0.26 0.26 0.27 0.25 0.23 0.23 0.23 0.26 0.27 0.28 0.28 0.27 0.28 0.28 0.26 0.22 0.21 0.19 0.20 0.24 0.23 0.21 0.20 0.22 0.23 0.27 0.28 0.29
0.33 0.31 0.26 0.23 0.22 0.20 0.20 0.20 0.19 0.21 0.21 0.22 0.24 0.25 0.25 0.25 0.26 0.27 0.25 0.24 0.21 0.21 0.22 0.22 0.23 0.23 0.24 0.24 0.23 0.22 0.21 0.19 0.20 0.19 0.23 0.23 0.21 0.22 0.19 0.22 0.23 0.25 0.28

GFSMA_prec_pwat_015.txt.gz
Precipitable_Water
0.85 0.84 0.84 0.86 0.87 0.87 0.84 0.82 0.83 0.82 0.81 0.80 0.82 0.81 0.80 0.81 0.83 0.81 0.79 0.77 0.71 0.67 0.64 0.62 0.63 0.62 0.64 0.64 0.67 0.70 0.70 0.70 0.72 0.75 0.80 0.90 0.99 1.08 1.20 1.31 1.41 1.43 1.40
0.91 0.91 0.90 0.87 0.83 0.80 0.80 0.78 0.77 0.76 0.75 0.76 0.72 0.75 0.78 0.80 0.78 0.79 0.79 0.78 0.75 0.70 0.67 0.66 0.62 0.60 0.57 0.58 0.61 0.63 0.69 0.70 0.69 0.71 0.73 0.77 0.81 0.98 1.10 1.20 1.37 1.46 1.43
0.97 0.98 0.91 0.84 0.80 0.80 0.81 0.79 0.76 0.71 0.67 0.66 0.61 0.64 0.68 0.71 0.72 0.72 0.74 0.73 0.70 0.67 0.66 0.65 0.66 0.65 0.63 0.61 0.60 0.62 0.67 0.69 0.71 0.67 0.69 0.73 0.79 0.83 0.98 1.08 1.28 1.41 1.45
1.00 0.95 0.90 0.86 0.86 0.83 0.80 0.76 0.69 0.62 0.60 0.58 0.53 0.51 0.50 0.51 0.50 0.52 0.56 0.60 0.62 0.63 0.63 0.64 0.68 0.66 0.63 0.65 0.68 0.67 0.65 0.69 0.74 0.71 0.70 0.67 0.72 0.78 0.84 0.99 1.31 1.41 1.46
0.98 0.95 0.91 0.87 0.85 0.78 0.73 0.68 0.61 0.59 0.54 0.52 0.49 0.47 0.46 0.44 0.44 0.47 0.48 0.50 0.53 0.54 0.55 0.54 0.53 0.57 0.63 0.67 0.64 0.67 0.69 0.69 0.71 0.74 0.73 0.69 0.66 0.69 0.72 0.80 1.07 1.35 1.41
0.91 0.90 0.86 0.79 0.74 0.68 0.62 0.58 0.54 0.54 0.53 0.52 0.49 0.47 0.47 0.46 0.45 0.49 0.50 0.51 0.51 0.51 0.52 0.52 0.53 0.52 0.54 0.62 0.66 0.66 0.65 0.69 0.73 0.74 0.74 0.72 0.69 0.67 0.67 0.71 0.77 1.05 1.29
0.89 0.79 0.72 0.68 0.66 0.61 0.58 0.57 0.53 0.50 0.49 0.52 0.47 0.43 0.42 0.44 0.47 0.45 0.48 0.48 0.46 0.48 0.49 0.49 0.49 0.52 0.51 0.54 0.57 0.65 0.68 0.69 0.74 0.76 0.76 0.76 0.73 0.68 0.66 0.67 0.68 0.77 1.02
0.74 0.68 0.67 0.65 0.61 0.56 0.55 0.54 0.54 0.51 0.51 0.52 0.43 0.38 0.31 0.34 0.40 0.45 0.43 0.43 0.43 0.44 0.43 0.42 0.42 0.40 0.41 0.47 0.55 0.58 0.63 0.68 0.70 0.75 0.78 0.80 0.78 0.74 0.69 0.67 0.65 0.73 0.81
0.66 0.66 0.64 0.62 0.61 0.61 0.58 0.55 0.55 0.54 0.45 0.45 0.45 0.37 0.28 0.26 0.33 0.37 0.37 0.38 0.38 0.36 0.35 0.36 0.38 0.36 0.37 0.40 0.45 0.52 0.59 0.60 0.67 0.68 0.71 0.77 0.80 0.79 0.74 0.67 0.65 0.68 0.78
0.64 0.63 0.62 0.63 0.67 0.65 0.60 0.55 0.51 0.44 0.40 0.35 0.38 0.39 0.39 0.37 0.29 0.25 0.34 0.32 0.33 0.31 0.31 0.32 0.33 0.34 0.36 0.41 0.40 0.43 0.52 0.56 0.58 0.67 0.71 0.68 0.74 0.79 0.78 0.70 0.65 0.63 0.70
0.66 0.66 0.65 0.69 0.58 0.52 0.49 0.45 0.37 0.34 0.36 0.35 0.35 0.36 0.34 0.33 0.37 0.32 0.26 0.31 0.35 0.36 0.34 0.34 0.34 0.35 0.37 0.42 0.40 0.42 0.45 0.47 0.55 0.60 0.67 0.73 0.72 0.76 0.79 0.76 0.66 0.63 0.65
0.61 0.62 0.53 0.51 0.47 0.42 0.40 0.34 0.31 0.30 0.28 0.28 0.30 0.32 0.32 0.32 0.33 0.34 0.30 0.30 0.33 0.34 0.37 0.38 0.36 0.36 0.37 0.37 0.39 0.40 0.44 0.44 0.46 0.53 0.60 0.68 0.72 0.76 0.74 0.75 0.72 0.67 0.68
0.49 0.45 0.45 0.43 0.43 0.37 0.33 0.32 0.31 0.30 0.28 0.27 0.28 0.29 0.32 0.32 0.35 0.35 0.35 0.31 0.31 0.31 0.34 0.39 0.42 0.42 0.41 0.37 0.37 0.39 0.43 0.45 0.43 0.47 0.53 0.62 0.67 0.75 0.74 0.76 0.78 0.75 0.67
0.43 0.47 0.46 0.46 0.40 0.38 0.35 0.34 0.32 0.29 0.28 0.28 0.26 0.27 0.27 0.28 0.32 0.31 0.31 0.30 0.27 0.30 0.31 0.32 0.40 0.42 0.41 0.37 0.37 0.37 0.42 0.40 0.42 0.44 0.48 0.53 0.61 0.68 0.73 0.73 0.80 0.80 0.77
0.45 0.50 0.51 0.47 0.44 0.42 0.41 0.36 0.31 0.30 0.30 0.27 0.27 0.28 0.27 0.25 0.24 0.24 0.23 0.26 0.27 0.22 0.22 0.28 0.32 0.36 0.37 0.39 0.36 0.35 0.39 0.43 0.41 0.40 0.45 0.49 0.53 0.65 0.66 0.67 0.71 0.75 0.77
0.46 0.43 0.44 0.47 0.46 0.42 0.36 0.33 0.29 0.28 0.26 0.25 0.25 0.24 0.23 0.22 0.23 0.24 0.23 0.22 0.21 0.20 0.18 0.26 0.27 0.33 0.34 0.34 0.37 0.36 0.34 0.34 0.40 0.37 0.39 0.49 0.52 0.55 0.61 0.62 0.59 0.61 0.65
0.48 0.47 0.47 0.44 0.43 0.35 0.33 0.30 0.27 0.26 0.23 0.22 0.23 0.24 0.24 0.24 0.23 0.23 0.22 0.21 0.20 0.20 0.17 0.18 0.21 0.27 0.30 0.28 0.31 0.33 0.34 0.33 0.35 0.39 0.35 0.44 0.52 0.52 0.57 0.62 0.63 0.65 0.62
0.39 0.40 0.41 0.42 0.37 0.32 0.30 0.29 0.27 0.26 0.23 0.22 0.24 0.25 0.24 0.24 0.22 0.21 0.19 0.17 0.17 0.19 0.19 0.17 0.19 0.20 0.22 0.25 0.28 0.29 0.30 0.31 0.32 0.34 0.37 0.40 0.50 0.52 0.56 0.57 0.61 0.62 0.65
0.33 0.38 0.41 0.38 0.31 0.30 0.31 0.30 0.26 0.24 0.25 0.25 0.26 0.25 0.22 0.20 0.18 0.19 0.20 0.20 0.21 0.22 0.23 0.22 0.19 0.21 0.23 0.24 0.22 0.24 0.25 0.26 0.27 0.30 0.34 0.39 0.47 0.52 0.53 0.53 0.57 0.58 0.58
0.39 0.39 0.39 0.36 0.32 0.34 0.31 0.28 0.25 0.26 0.26 0.26 0.24 0.22 0.21 0.21 0.21 0.21 0.20 0.20 0.23 0.24 0.25 0.24 0.24 0.23 0.24 0.25 0.23 0.19 0.18 0.20 0.21 0.24 0.31 0.35 0.44 0.47 0.50 0.53 0.53 0.56 0.52
0.42 0.44 0.36 0.35 0.37 0.32 0.31 0.26 0.27 0.26 0.24 0.22 0.23 0.22 0.23 0.23 0.24 0.23 0.22 0.23 0.24 0.23 0.23 0.24 0.23 0.24 0.24 0.23 0.21 0.21 0.18 0.18 0.18 0.19 0.24 0.32 0.37 0.42 0.45 0.48 0.50 0.53 0.53
0.38 0.35 0.39 0.34 0.31 0.31 0.30 0.28 0.27 0.25 0.24 0.22 0.21 0.22 0.23 0.23 0.23 0.24 0.26 0.26 0.26 0.24 0.23 0.23 0.22 0.22 0.24 0.24 0.24 0.22 0.20 0.17 0.14 0.20 0.23 0.26 0.32 0.34 0.39 0.41 0.46 0.48 0.50
0.36 0.37 0.32 0.31 0.31 0.30 0.27 0.26 0.26 0.24 0.21 0.20 0.20 0.21 0.22 0.24 0.25 0.26 0.26 0.26 0.27 0.27 0.27 0.25 0.22 0.23 0.23 0.25 0.26 0.23 0.20 0.18 0.17 0.19 0.22 0.21 0.26 0.27 0.35 0.37 0.39 0.42 0.45
0.35 0.33 0.32 0.32 0.31 0.26 0.24 0.23 0.23 0.20 0.19 0.18 0.20 0.22 0.24 0.25 0.26 0.26 0.26 0.25 0.24 0.25 0.25 0.25 0.26 0.26 0.24 0.25 0.25 0.24 0.22 0.21 0.21 0.21 0.24 0.19 0.23 0.21 0.26 0.32 0.35 0.37 0.42
0.31 0.32 0.32 0.31 0.25 0.21 0.20 0.21 0.20 0.19 0.18 0.18 0.22 0.24 0.25 0.25 0.26 0.27 0.25 0.24 0.24 0.23 0.25 0.25 0.25 0.26 0.29 0.29 0.29 0.26 0.22 0.20 0.17 0.18 0.23 0.22 0.21 0.21 0.21 0.22 0.27 0.31 0.33
0.33 0.33 0.29 0.25 0.22 0.19 0.20 0.19 0.19 0.18 0.17 0.19 0.22 0.24 0.25 0.26 0.27 0.27 0.25 0.24 0.22 0.22 0.23 0.24 0.24 0.24 0.24 0.24 0.25 0.25 0.22 0.18 0.18 0.16 0.21 0.21 0.20 0.22 0.19 0.22 0.21 0.23 0.27

GFSMA_prec_pwat_018.txt.gz
Precipitable_Water
0.94 0.90 0.88 0.90 0.89 0.89 0.84 0.79 0.76 0.77 0.75 0.73 0.69 0.69 0.69 0.67 0.69 0.73 0.76 0.80 0.81 0.79 0.77 0.74 0.66 0.67 0.68 0.72 0.76 0.71 0.70 0.72 0.73 0.70 0.67 0.67 0.73 0.92 1.06 1.21 1.29 1.36 1.43
1.00 0.96 0.93 0.90 0.89 0.87 0.84 0.81 0.78 0.75 0.73 0.69 0.61 0.62 0.60 0.59 0.60 0.62 0.65 0.67 0.69 0.71 0.73 0.73 0.71 0.65 0.64 0.65 0.66 0.70 0.73 0.72 0.72 0.74 0.73 0.68 0.68 0.71 0.81 1.00 1.19 1.31 1.39
1.05 0.99 0.95 0.93 0.92 0.92 0.87 0.82 0.78 0.71 0.66 0.62 0.55 0.53 0.50 0.48 0.47 0.49 0.51 0.53 0.56 0.61 0.63 0.62 0.62 0.62 0.63 0.64 0.62 0.62 0.69 0.74 0.75 0.72 0.76 0.75 0.72 0.71 0.73 0.78 0.96 1.11 1.27
1.01 0.98 0.94 0.92 0.94 0.88 0.79 0.72 0.67 0.63 0.59 0.55 0.52 0.50 0.48 0.46 0.45 0.47 0.50 0.52 0.51 0.50 0.49 0.52 0.53 0.53 0.54 0.61 0.66 0.65 0.66 0.70 0.73 0.78 0.75 0.73 0.74 0.72 0.69 0.71 0.74 0.95 1.09
0.98 0.92 0.89 0.90 0.88 0.78 0.69 0.65 0.62 0.57 0.52 0.51 0.49 0.48 0.49 0.47 0.48 0.50 0.52 0.52 0.52 0.51 0.50 0.51 0.50 0.49 0.49 0.49 0.52 0.58 0.65 0.67 0.72 0.75 0.78 0.79 0.72 0.72 0.69 0.69 0.69 0.69 0.93
0.95 0.91 0.84 0.76 0.71 0.65 0.63 0.61 0.57 0.56 0.52 0.51 0.48 0.48 0.47 0.46 0.50 0.50 0.49 0.49 0.47 0.46 0.46 0.46 0.46 0.48 0.47 0.47 0.48 0.52 0.57 0.66 0.68 0.72 0.78 0.80 0.82 0.75 0.70 0.69 0.72 0.69 0.66
0.80 0.74 0.70 0.67 0.66 0.63 0.59 0.56 0.54 0.52 0.51 0.54 0.48 0.44 0.40 0.41 0.40 0.38 0.43 0.43 0.41 0.42 0.42 0.41 0.39 0.40 0.40 0.43 0.47 0.50 0.54 0.59 0.64 0.66 0.67 0.80 0.86 0.87 0.79 0.72 0.70 0.70 0.67
0.69 0.66 0.62 0.60 0.59 0.57 0.56 0.58 0.57 0.51 0.49 0.48 0.38 0.35 0.29 0.31 0.35 0.39 0.33 0.35 0.36 0.36 0.36 0.35 0.35 0.35 0.34 0.36 0.40 0.43 0.46 0.51 0.55 0.61 0.66 0.69 0.77 0.86 0.87 0.81 0.73 0.69 0.70
0.67 0.63 0.62 0.62 0.62 0.60 0.54 0.51 0.48 0.44 0.38 0.38 0.37 0.33 0.27 0.23 0.28 0.31 0.31 0.29 0.33 0.34 0.35 0.35 0.35 0.35 0.34 0.34 0.36 0.39 0.41 0.45 0.50 0.53 0.60 0.65 0.70 0.76 0.84 0.87 0.82 0.71 0.68
0.65 0.65 0.66 0.61 0.55 0.49 0.43 0.42 0.39 0.35 0.32 0.28 0.31 0.35 0.34 0.35 0.26 0.23 0.31 0.33 0.35 0.35 0.34 0.35 0.35 0.36 0.36 0.36 0.38 0.36 0.37 0.40 0.43 0.45 0.52 0.59 0.64 0.72 0.73 0.82 0.86 0.82 0.69
0.60 0.56 0.53 0.48 0.43 0.43 0.43 0.41 0.35 0.31 0.30 0.27 0.28 0.28 0.29 0.32 0.32 0.30 0.23 0.27 0.32 0.35 0.35 0.34 0.35 0.37 0.37 0.38 0.36 0.35 0.35 0.39 0.39 0.40 0.44 0.50 0.58 0.64 0.74 0.75 0.77 0.86 0.81
0.48 0.45 0.45 0.45 0.43 0.42 0.40 0.34 0.33 0.30 0.28 0.28 0.28 0.29 0.29 0.28 0.25 0.26 0.25 0.27 0.29 0.31 0.30 0.34 0.36 0.40 0.41 0.38 0.35 0.35 0.36 0.42 0.41 0.38 0.38 0.44 0.49 0.58 0.68 0.77 0.76 0.79 0.82
0.39 0.41 0.42 0.37 0.41 0.41 0.38 0.37 0.35 0.33 0.31 0.30 0.28 0.26 0.28 0.27 0.28 0.25 0.24 0.22 0.22 0.23 0.26 0.30 0.32 0.38 0.42 0.42 0.36 0.36 0.36 0.42 0.39 0.39 0.37 0.38 0.44 0.49 0.60 0.69 0.77 0.74 0.74
0.41 0.46 0.43 0.41 0.44 0.42 0.42 0.43 0.38 0.34 0.31 0.30 0.29 0.28 0.27 0.26 0.26 0.25 0.25 0.21 0.18 0.19 0.19 0.21 0.27 0.29 0.33 0.38 0.42 0.37 0.33 0.42 0.41 0.39 0.38 0.37 0.41 0.45 0.54 0.62 0.69 0.72 0.71
0.41 0.43 0.42 0.47 0.43 0.44 0.42 0.40 0.36 0.33 0.31 0.29 0.27 0.26 0.25 0.25 0.25 0.25 0.24 0.24 0.22 0.16 0.14 0.16 0.18 0.23 0.26 0.29 0.34 0.37 0.37 0.34 0.36 0.40 0.38 0.35 0.38 0.44 0.51 0.56 0.59 0.65 0.73
0.38 0.41 0.42 0.39 0.41 0.42 0.40 0.36 0.31 0.30 0.29 0.29 0.27 0.23 0.23 0.24 0.25 0.25 0.25 0.24 0.23 0.21 0.16 0.18 0.18 0.21 0.24 0.25 0.27 0.32 0.32 0.36 0.35 0.37 0.39 0.36 0.34 0.40 0.46 0.52 0.56 0.57 0.67
0.30 0.34 0.35 0.39 0.40 0.38 0.37 0.30 0.29 0.30 0.28 0.27 0.24 0.23 0.22 0.24 0.23 0.23 0.23 0.21 0.19 0.18 0.16 0.16 0.19 0.20 0.20 0.20 0.23 0.26 0.29 0.30 0.33 0.35 0.40 0.38 0.35 0.35 0.43 0.51 0.56 0.56 0.58
0.28 0.33 0.36 0.38 0.38 0.39 0.35 0.30 0.30 0.29 0.27 0.23 0.23 0.24 0.23 0.24 0.22 0.20 0.19 0.19 0.20 0.21 0.19 0.18 0.20 0.20 0.21 0.22 0.27 0.25 0.24 0.28 0.29 0.30 0.33 0.36 0.36 0.35 0.39 0.49 0.53 0.55 0.53
0.30 0.33 0.36 0.39 0.39 0.34 0.30 0.33 0.31 0.29 0.25 0.25 0.25 0.24 0.22 0.22 0.20 0.20 0.21 0.21 0.22 0.21 0.22 0.23 0.21 0.24 0.24 0.25 0.23 0.26 0.24 0.22 0.24 0.25 0.26 0.32 0.36 0.37 0.36 0.45 0.53 0.54 0.55
0.31 0.34 0.41 0.41 0.35 0.33 0.34 0.33 0.30 0.29 0.25 0.25 0.24 0.23 0.22 0.21 0.20 0.22 0.23 0.23 0.23 0.23 0.24 0.23 0.22 0.25 0.26 0.26 0.27 0.24 0.23 0.23 0.20 0.21 0.21 0.26 0.33 0.39 0.38 0.44 0.52 0.53 0.55
0.34 0.38 0.38 0.37 0.36 0.34 0.33 0.31 0.32 0.27 0.24 0.23 0.23 0.21 0.21 0.21 0.24 0.25 0.24 0.24 0.25 0.24 0.24 0.23 0.22 0.23 0.23 0.23 0.24 0.27 0.25 0.23 0.22 0.20 0.17 0.19 0.27 0.35 0.38 0.45 0.50 0.52 0.53
0.34 0.36 0.35 0.35 0.33 0.32 0.33 0.34 0.29 0.24 0.22 0.20 0.18 0.18 0.18 0.21 0.23 0.26 0.26 0.26 0.27 0.25 0.23 0.22 0.21 0.20 0.20 0.22 0.26 0.25 0.25 0.23 0.19 0.23 0.20 0.17 0.23 0.28 0.34 0.41 0.47 0.50 0.52
0.34 0.33 0.32 0.31 0.31 0.32 0.33 0.27 0.24 0.20 0.18 0.18 0.17 0.17 0.18 0.23 0.25 0.25 0.26 0.27 0.26 0.26 0.26 0.25 0.22 0.22 0.22 0.23 0.24 0.24 0.25 0.24 0.22 0.22 0.21 0.16 0.20 0.22 0.31 0.36 0.41 0.44 0.48
0.33 0.32 0.31 0.31 0.31 0.29 0.25 0.22 0.21 0.19 0.18 0.18 0.18 0.19 0.20 0.24 0.25 0.26 0.27 0.26 0.25 0.25 0.26 0.25 0.24 0.24 0.24 0.27 0.26 0.25 0.24 0.24 0.25 0.24 0.24 0.16 0.20 0.18 0.25 0.30 0.38 0.40 0.45
0.29 0.31 0.31 0.30 0.26 0.22 0.22 0.20 0.19 0.18 0.17 0.17 0.19 0.20 0.22 0.24 0.26 0.27 0.26 0.25 0.24 0.24 0.26 0.26 0.26 0.26 0.25 0.26 0.28 0.27 0.22 0.21 0.19 0.20 0.23 0.20 0.20 0.19 0.22 0.23 0.27 0.35 0.38
0.30 0.30 0.27 0.24 0.24 0.21 0.20 0.20 0.20 0.19 0.17 0.17 0.19 0.19 0.22 0.25 0.26 0.27 0.26 0.24 0.22 0.23 0.23 0.24 0.25 0.25 0.26 0.25 0.24 0.25 0.23 0.21 0.21 0.19 0.22 0.21 0.20 0.20 0.18 0.22 0.22 0.24 0.28

GFSMA_prec_pwat_021.txt.gz
Precipitable_Water
1.02 0.98 0.97 0.95 0.93 0.93 0.90 0.88 0.86 0.81 0.77 0.73 0.68 0.65 0.60 0.57 0.54 0.54 0.56 0.58 0.62 0.67 0.71 0.75 0.78 0.79 0.76 0.74 0.74 0.69 0.65 0.70 0.74 0.76 0.77 0.75 0.72 0.70 0.77 1.05 1.23 1.29 1.40
1.10 1.06 1.00 0.98 0.96 0.94 0.90 0.90 0.87 0.79 0.72 0.69 0.64 0.60 0.55 0.53 0.49 0.48 0.47 0.48 0.49 0.51 0.56 0.61 0.63 0.64 0.66 0.68 0.69 0.71 0.71 0.66 0.67 0.74 0.74 0.77 0.78 0.72 0.70 0.70 0.87 1.14 1.26
1.13 1.06 1.04 1.00 0.97 0.94 0.92 0.82 0.77 0.73 0.67 0.63 0.58 0.56 0.53 0.52 0.49 0.49 0.50 0.51 0.51 0.49 0.47 0.47 0.49 0.52 0.55 0.57 0.59 0.64 0.69 0.72 0.69 0.69 0.73 0.76 0.75 0.78 0.77 0.71 0.71 0.80 1.04
1.12 1.08 1.02 0.94 0.92 0.85 0.80 0.75 0.72 0.65 0.60 0.58 0.55 0.53 0.52 0.50 0.50 0.53 0.56 0.55 0.54 0.51 0.49 0.50 0.49 0.48 0.47 0.47 0.48 0.51 0.58 0.66 0.72 0.71 0.74 0.73 0.76 0.75 0.75 0.75 0.72 0.70 0.76
1.00 0.94 0.88 0.88 0.84 0.74 0.69 0.65 0.63 0.60 0.55 0.54 0.53 0.53 0.53 0.49 0.51 0.54 0.55 0.53 0.52 0.49 0.47 0.45 0.44 0.44 0.45 0.45 0.46 0.49 0.51 0.53 0.61 0.69 0.73 0.74 0.77 0.79 0.78 0.75 0.75 0.73 0.71
0.86 0.79 0.74 0.71 0.68 0.64 0.62 0.61 0.60 0.59 0.55 0.52 0.47 0.45 0.44 0.39 0.43 0.47 0.45 0.44 0.43 0.43 0.43 0.42 0.41 0.39 0.38 0.38 0.40 0.44 0.50 0.54 0.57 0.62 0.66 0.71 0.75 0.78 0.81 0.84 0.77 0.74 0.72
0.72 0.71 0.69 0.67 0.64 0.62 0.60 0.59 0.56 0.51 0.45 0.45 0.34 0.32 0.30 0.35 0.41 0.40 0.37 0.35 0.38 0.37 0.37 0.36 0.35 0.35 0.34 0.33 0.34 0.38 0.44 0.51 0.54 0.55 0.60 0.63 0.68 0.72 0.78 0.84 0.88 0.79 0.71
0.71 0.68 0.66 0.66 0.65 0.61 0.59 0.53 0.47 0.38 0.36 0.38 0.28 0.25 0.21 0.25 0.35 0.36 0.38 0.36 0.35 0.35 0.35 0.36 0.36 0.35 0.34 0.33 0.32 0.34 0.38 0.40 0.46 0.50 0.51 0.56 0.61 0.66 0.70 0.77 0.84 0.90 0.80
0.68 0.66 0.63 0.61 0.55 0.50 0.46 0.44 0.41 0.36 0.30 0.33 0.33 0.28 0.23 0.21 0.27 0.29 0.31 0.32 0.36 0.35 0.36 0.37 0.36 0.36 0.37 0.37 0.35 0.35 0.37 0.36 0.40 0.43 0.47 0.47 0.51 0.60 0.65 0.71 0.79 0.84 0.89
0.64 0.59 0.55 0.51 0.47 0.42 0.38 0.37 0.37 0.34 0.30 0.27 0.29 0.33 0.32 0.31 0.24 0.23 0.30 0.33 0.33 0.30 0.33 0.34 0.33 0.34 0.37 0.38 0.38 0.36 0.35 0.35 0.38 0.41 0.43 0.46 0.47 0.49 0.59 0.66 0.72 0.79 0.84
0.51 0.48 0.45 0.42 0.39 0.37 0.36 0.36 0.34 0.32 0.31 0.29 0.29 0.28 0.29 0.32 0.32 0.30 0.23 0.25 0.28 0.29 0.31 0.29 0.31 0.32 0.36 0.40 0.39 0.36 0.34 0.35 0.40 0.42 0.40 0.40 0.45 0.48 0.51 0.58 0.67 0.73 0.77
0.43 0.45 0.46 0.44 0.41 0.36 0.39 0.40 0.38 0.35 0.34 0.32 0.31 0.30 0.28 0.26 0.25 0.26 0.24 0.24 0.23 0.23 0.24 0.26 0.28 0.29 0.31 0.36 0.38 0.40 0.36 0.33 0.42 0.43 0.40 0.38 0.39 0.43 0.50 0.50 0.55 0.67 0.75
0.43 0.41 0.42 0.42 0.40 0.42 0.47 0.43 0.40 0.37 0.31 0.29 0.30 0.30 0.30 0.29 0.27 0.25 0.24 0.21 0.21 0.19 0.20 0.24 0.24 0.25 0.24 0.29 0.33 0.34 0.39 0.37 0.37 0.45 0.42 0.40 0.36 0.37 0.42 0.50 0.50 0.58 0.72
0.37 0.37 0.38 0.40 0.40 0.45 0.41 0.42 0.39 0.35 0.33 0.31 0.29 0.29 0.28 0.28 0.28 0.27 0.23 0.22 0.18 0.19 0.19 0.20 0.23 0.23 0.24 0.25 0.26 0.28 0.32 0.38 0.36 0.35 0.40 0.41 0.37 0.34 0.37 0.46 0.46 0.52 0.63
0.28 0.30 0.36 0.39 0.41 0.38 0.38 0.39 0.36 0.36 0.34 0.30 0.30 0.29 0.27 0.25 0.25 0.25 0.25 0.25 0.22 0.17 0.16 0.18 0.17 0.21 0.22 0.23 0.24 0.25 0.27 0.32 0.35 0.36 0.37 0.38 0.38 0.34 0.34 0.40 0.46 0.48 0.56
0.27 0.28 0.31 0.38 0.39 0.38 0.40 0.40 0.38 0.35 0.30 0.31 0.30 0.28 0.24 0.25 0.25 0.26 0.26 0.26 0.24 0.20 0.15 0.17 0.17 0.19 0.20 0.21 0.24 0.24 0.24 0.26 0.28 0.32 0.35 0.40 0.39 0.36 0.33 0.34 0.42 0.48 0.50
0.28 0.28 0.31 0.34 0.37 0.37 0.40 0.40 0.37 0.31 0.30 0.32 0.31 0.28 0.24 0.25 0.24 0.25 0.25 0.22 0.20 0.19 0.17 0.17 0.20 0.21 0.21 0.22 0.23 0.25 0.23 0.25 0.27 0.29 0.33 0.35 0.37 0.37 0.35 0.34 0.38 0.47 0.50
0.30 0.30 0.32 0.34 0.35 0.37 0.41 0.36 0.30 0.32 0.33 0.31 0.30 0.26 0.24 0.24 0.23 0.23 0.22 0.20 0.21 0.22 0.21 0.18 0.20 0.21 0.24 0.25 0.25 0.26 0.25 0.29 0.27 0.27 0.26 0.29 0.32 0.37 0.37 0.35 0.36 0.43 0.52
0.30 0.32 0.33 0.34 0.39 0.43 0.37 0.32 0.32 0.33 0.31 0.31 0.29 0.24 0.23 0.23 0.21 0.20 0.20 0.21 0.23 0.24 0.24 0.22 0.21 0.24 0.24 0.24 0.27 0.28 0.27 0.27 0.29 0.26 0.23 0.23 0.27 0.33 0.38 0.37 0.36 0.40 0.50
0.31 0.32 0.35 0.36 0.37 0.35 0.36 0.34 0.33 0.32 0.32 0.30 0.24 0.23 0.22 0.20 0.18 0.19 0.21 0.23 0.24 0.25 0.24 0.24 0.22 0.22 0.23 0.25 0.26 0.25 0.25 0.27 0.26 0.26 0.23 0.22 0.22 0.29 0.36 0.38 0.36 0.41 0.46
0.32 0.33 0.34 0.34 0.34 0.36 0.35 0.35 0.34 0.32 0.28 0.22 0.20 0.18 0.18 0.18 0.19 0.21 0.23 0.24 0.24 0.24 0.23 0.23 0.21 0.20 0.20 0.21 0.21 0.23 0.24 0.27 0.29 0.27 0.24 0.23 0.23 0.26 0.33 0.36 0.39 0.41 0.46
0.31 0.34 0.33 0.32 0.32 0.32 0.33 0.33 0.31 0.25 0.20 0.18 0.16 0.17 0.17 0.18 0.20 0.23 0.25 0.26 0.26 0.25 0.24 0.22 0.21 0.21 0.22 0.22 0.23 0.22 0.25 0.24 0.22 0.28 0.25 0.23 0.24 0.23 0.27 0.31 0.36 0.40 0.45
0.30 0.33 0.32 0.30 0.31 0.31 0.30 0.28 0.23 0.21 0.18 0.17 0.17 0.17 0.17 0.19 0.21 0.24 0.25 0.26 0.28 0.27 0.26 0.25 0.22 0.21 0.20 0.21 0.23 0.23 0.23 0.24 0.23 0.28 0.25 0.22 0.25 0.22 0.24 0.28 0.31 0.36 0.46
0.29 0.31 0.29 0.30 0.29 0.28 0.25 0.23 0.20 0.19 0.18 0.18 0.18 0.18 0.18 0.19 0.21 0.24 0.26 0.26 0.26 0.25 0.26 0.26 0.25 0.24 0.24 0.25 0.24 0.25 0.25 0.24 0.25 0.26 0.27 0.21 0.23 0.22 0.24 0.24 0.29 0.36 0.45
0.29 0.29 0.29 0.28 0.26 0.23 0.23 0.21 0.19 0.19 0.19 0.18 0.18 0.19 0.19 0.19 0.22 0.25 0.24 0.22 0.19 0.23 0.26 0.26 0.26 0.26 0.26 0.27 0.27 0.25 0.23 0.22 0.20 0.21 0.24 0.23 0.22 0.22 0.23 0.22 0.26 0.33 0.43
0.28 0.29 0.28 0.28 0.24 0.23 0.21 0.20 0.20 0.21 0.19 0.18 0.18 0.17 0.18 0.20 0.23 0.22 0.20 0.20 0.18 0.23 0.23 0.24 0.24 0.25 0.26 0.27 0.27 0.25 0.23 0.22 0.21 0.22 0.24 0.22 0.22 0.22 0.18 0.23 0.23 0.28 0.36

GFSMA_prec_pwat_027.txt.gz
Precipitable_Water
1.22 1.19 1.22 1.17 1.17 1.15 1.12 1.08 1.03 0.98 0.93 0.86 0.80 0.75 0.72 0.69 0.67 0.65 0.62 0.63 0.59 0.56 0.55 0.57 0.58 0.58 0.59 0.59 0.59 0.60 0.61 0.64 0.70 0.74 0.75 0.78 0.83 0.78 0.72 0.65 0.68 0.83 1.04
1.21 1.22 1.20 1.21 1.21 1.18 1.15 1.03 0.92 0.83 0.80 0.79 0.74 0.70 0.67 0.65 0.62 0.62 0.62 0.60 0.61 0.59 0.57 0.55 0.55 0.55 0.56 0.55 0.53 0.54 0.56 0.58 0.59 0.63 0.70 0.75 0.75 0.77 0.80 0.77 0.69 0.67 0.72
1.23 1.20 1.18 1.18 1.15 1.09 0.92 0.82 0.75 0.74 0.70 0.69 0.66 0.64 0.63 0.59 0.54 0.55 0.57 0.53 0.60 0.65 0.62 0.57 0.51 0.51 0.50 0.49 0.49 0.50 0.51 0.53 0.56 0.57 0.59 0.66 0.74 0.76 0.76 0.78 0.81 0.75 0.67
1.18 1.17 1.13 1.04 0.93 0.85 0.77 0.72 0.69 0.67 0.65 0.63 0.61 0.60 0.56 0.46 0.42 0.46 0.42 0.39 0.56 0.59 0.59 0.55 0.51 0.46 0.43 0.42 0.44 0.47 0.48 0.49 0.50 0.54 0.59 0.61 0.60 0.69 0.76 0.76 0.77 0.80 0.77
1.05 0.95 0.87 0.82 0.78 0.74 0.73 0.72 0.71 0.67 0.62 0.59 0.51 0.48 0.46 0.36 0.39 0.38 0.40 0.43 0.57 0.56 0.54 0.50 0.50 0.45 0.43 0.41 0.40 0.41 0.44 0.50 0.51 0.52 0.54 0.57 0.61 0.61 0.62 0.69 0.75 0.79 0.82
0.85 0.81 0.78 0.75 0.77 0.74 0.72 0.71 0.64 0.59 0.52 0.46 0.40 0.42 0.42 0.39 0.36 0.41 0.49 0.52 0.52 0.50 0.51 0.52 0.49 0.46 0.46 0.44 0.43 0.41 0.45 0.45 0.47 0.51 0.51 0.50 0.52 0.57 0.59 0.61 0.65 0.73 0.79
0.77 0.75 0.76 0.77 0.76 0.71 0.65 0.63 0.55 0.45 0.40 0.39 0.37 0.37 0.37 0.33 0.34 0.34 0.39 0.48 0.45 0.43 0.44 0.45 0.46 0.46 0.43 0.45 0.45 0.46 0.44 0.43 0.47 0.44 0.44 0.46 0.46 0.48 0.50 0.54 0.60 0.64 0.72
0.79 0.75 0.77 0.73 0.69 0.61 0.51 0.44 0.46 0.42 0.40 0.39 0.33 0.32 0.27 0.27 0.31 0.35 0.37 0.37 0.38 0.38 0.42 0.41 0.40 0.40 0.43 0.40 0.41 0.42 0.48 0.48 0.43 0.40 0.37 0.40 0.44 0.44 0.45 0.48 0.51 0.60 0.65
0.77 0.75 0.70 0.62 0.55 0.49 0.44 0.43 0.44 0.44 0.36 0.38 0.38 0.33 0.26 0.24 0.27 0.30 0.31 0.32 0.34 0.37 0.38 0.37 0.37 0.37 0.39 0.38 0.39 0.40 0.44 0.41 0.40 0.36 0.36 0.39 0.42 0.44 0.44 0.44 0.48 0.52 0.59
0.71 0.62 0.57 0.56 0.53 0.50 0.47 0.47 0.45 0.42 0.40 0.36 0.38 0.37 0.36 0.31 0.24 0.22 0.28 0.30 0.31 0.30 0.30 0.31 0.34 0.34 0.32 0.31 0.35 0.34 0.40 0.39 0.36 0.33 0.35 0.40 0.43 0.44 0.44 0.44 0.44 0.48 0.52
0.63 0.59 0.58 0.57 0.54 0.50 0.48 0.47 0.45 0.43 0.43 0.39 0.37 0.34 0.30 0.29 0.29 0.26 0.24 0.25 0.27 0.27 0.28 0.29 0.29 0.30 0.29 0.30 0.31 0.31 0.33 0.32 0.31 0.29 0.31 0.36 0.40 0.45 0.44 0.42 0.43 0.44 0.46
0.54 0.50 0.47 0.44 0.42 0.43 0.47 0.46 0.47 0.45 0.45 0.42 0.38 0.34 0.32 0.28 0.27 0.28 0.25 0.24 0.24 0.23 0.26 0.26 0.27 0.27 0.28 0.29 0.28 0.30 0.29 0.31 0.30 0.29 0.27 0.28 0.35 0.37 0.44 0.44 0.40 0.39 0.44
0.44 0.41 0.39 0.38 0.38 0.39 0.41 0.47 0.45 0.48 0.42 0.43 0.42 0.39 0.37 0.34 0.34 0.31 0.28 0.25 0.23 0.23 0.23 0.26 0.27 0.28 0.27 0.28 0.27 0.28 0.27 0.27 0.26 0.26 0.25 0.28 0.31 0.34 0.38 0.40 0.38 0.37 0.38
0.40 0.39 0.39 0.39 0.39 0.41 0.43 0.47 0.48 0.47 0.46 0.45 0.45 0.45 0.41 0.38 0.37 0.35 0.30 0.27 0.23 0.22 0.23 0.24 0.27 0.27 0.27 0.27 0.25 0.25 0.24 0.25 0.24 0.24 0.26 0.30 0.31 0.31 0.34 0.40 0.37 0.35 0.35
0.39 0.38 0.39 0.38 0.36 0.36 0.41 0.47 0.47 0.45 0.45 0.40 0.46 0.46 0.40 0.36 0.38 0.38 0.34 0.30 0.27 0.21 0.20 0.23 0.23 0.26 0.25 0.26 0.26 0.27 0.27 0.26 0.26 0.26 0.24 0.24 0.27 0.28 0.28 0.37 0.41 0.36 0.34
0.41 0.41 0.40 0.38 0.38 0.39 0.39 0.39 0.40 0.38 0.41 0.43 0.44 0.41 0.35 0.37 0.39 0.37 0.33 0.30 0.25 0.23 0.19 0.22 0.21 0.23 0.25 0.26 0.28 0.28 0.28 0.29 0.28 0.29 0.29 0.27 0.24 0.24 0.26 0.29 0.35 0.37 0.35
0.43 0.42 0.39 0.38 0.39 0.38 0.37 0.37 0.38 0.39 0.39 0.44 0.38 0.34 0.37 0.38 0.35 0.34 0.32 0.24 0.24 0.23 0.20 0.19 0.20 0.23 0.26 0.27 0.28 0.29 0.28 0.28 0.27 0.28 0.28 0.30 0.29 0.28 0.29 0.24 0.24 0.32 0.35
0.46 0.43 0.38 0.38 0.38 0.37 0.37 0.37 0.35 0.35 0.40 0.40 0.38 0.35 0.34 0.35 0.32 0.27 0.23 0.22 0.21 0.21 0.20 0.17 0.19 0.23 0.26 0.28 0.27 0.26 0.27 0.28 0.28 0.30 0.31 0.32 0.32 0.34 0.30 0.26 0.23 0.24 0.33
0.45 0.42 0.38 0.38 0.37 0.37 0.36 0.36 0.35 0.35 0.35 0.36 0.36 0.34 0.32 0.29 0.22 0.21 0.21 0.20 0.19 0.20 0.20 0.20 0.21 0.25 0.25 0.26 0.26 0.27 0.26 0.26 0.28 0.29 0.31 0.33 0.33 0.33 0.32 0.27 0.23 0.21 0.28
0.43 0.39 0.38 0.37 0.38 0.37 0.35 0.34 0.33 0.33 0.36 0.35 0.34 0.30 0.24 0.21 0.20 0.20 0.18 0.19 0.19 0.19 0.20 0.21 0.22 0.24 0.24 0.26 0.27 0.24 0.25 0.27 0.24 0.24 0.25 0.30 0.37 0.38 0.33 0.27 0.23 0.19 0.24
0.39 0.38 0.36 0.36 0.37 0.36 0.33 0.31 0.32 0.31 0.30 0.29 0.27 0.22 0.21 0.20 0.19 0.19 0.18 0.18 0.19 0.20 0.21 0.22 0.21 0.21 0.22 0.23 0.22 0.23 0.23 0.23 0.23 0.25 0.26 0.29 0.34 0.37 0.32 0.32 0.29 0.28 0.30
0.36 0.37 0.36 0.35 0.35 0.35 0.31 0.29 0.28 0.27 0.25 0.23 0.21 0.20 0.20 0.21 0.20 0.20 0.21 0.21 0.22 0.20 0.21 0.22 0.21 0.19 0.21 0.23 0.27 0.26 0.23 0.21 0.18 0.24 0.28 0.30 0.32 0.36 0.33 0.33 0.39 0.40 0.34
0.36 0.36 0.35 0.36 0.36 0.36 0.32 0.28 0.26 0.23 0.22 0.22 0.21 0.20 0.20 0.20 0.21 0.20 0.20 0.20 0.22 0.23 0.25 0.24 0.22 0.23 0.25 0.24 0.24 0.23 0.22 0.23 0.22 0.24 0.26 0.24 0.30 0.31 0.33 0.30 0.32 0.30 0.28
0.35 0.34 0.35 0.36 0.35 0.34 0.32 0.28 0.25 0.22 0.22 0.23 0.22 0.21 0.20 0.20 0.19 0.19 0.18 0.18 0.19 0.21 0.23 0.23 0.22 0.24 0.25 0.24 0.23 0.23 0.23 0.22 0.23 0.23 0.23 0.21 0.24 0.24 0.29 0.30 0.28 0.28 0.26
0.33 0.34 0.33 0.34 0.33 0.34 0.32 0.29 0.24 0.23 0.23 0.22 0.23 0.22 0.21 0.18 0.19 0.17 0.16 0.17 0.18 0.20 0.22 0.22 0.22 0.25 0.26 0.25 0.24 0.24 0.23 0.22 0.21 0.21 0.26 0.26 0.24 0.24 0.26 0.25 0.26 0.25 0.27
0.33 0.33 0.31 0.33 0.33 0.33 0.31 0.28 0.23 0.23 0.22 0.22 0.22 0.21 0.21 0.18 0.18 0.15 0.15 0.16 0.16 0.19 0.19 0.19 0.23 0.26 0.26 0.27 0.27 0.27 0.27 0.23 0.23 0.20 0.25 0.27 0.25 0.25 0.21 0.28 0.29 0.28 0.29

GFSMA_prec_pwat_030.txt.gz
Precipitable_Water
1.20 1.19 1.16 1.11 1.11 1.15 1.18 1.14 1.08 0.97 0.87 0.80 0.76 0.72 0.69 0.68 0.66 0.65 0.63 0.65 0.62 0.59 0.61 0.64 0.64 0.62 0.61 0.60 0.58 0.57 0.59 0.61 0.64 0.67 0.70 0.76 0.77 0.77 0.79 0.79 0.75 0.69 0.65
1.17 1.15 1.16 1.13 1.11 1.08 1.02 0.97 0.87 0.80 0.72 0.71 0.68 0.67 0.65 0.63 0.60 0.55 0.53 0.56 0.57 0.57 0.62 0.64 0.62 0.58 0.55 0.53 0.52 0.53 0.54 0.54 0.55 0.58 0.62 0.66 0.72 0.75 0.77 0.77 0.79 0.78 0.75
1.09 1.08 1.07 1.05 1.04 0.98 0.89 0.86 0.79 0.71 0.69 0.68 0.64 0.63 0.57 0.58 0.51 0.43 0.42 0.44 0.43 0.56 0.64 0.63 0.57 0.54 0.51 0.49 0.48 0.48 0.50 0.51 0.53 0.54 0.57 0.61 0.65 0.68 0.72 0.76 0.77 0.78 0.81
1.08 1.06 1.01 1.00 0.88 0.82 0.75 0.70 0.72 0.70 0.66 0.63 0.58 0.50 0.47 0.45 0.42 0.40 0.39 0.40 0.40 0.51 0.61 0.60 0.57 0.51 0.50 0.47 0.47 0.46 0.47 0.50 0.52 0.52 0.54 0.54 0.58 0.63 0.64 0.66 0.74 0.76 0.79
1.02 0.94 0.84 0.79 0.75 0.72 0.72 0.74 0.72 0.68 0.59 0.47 0.41 0.38 0.41 0.40 0.41 0.36 0.37 0.47 0.56 0.58 0.57 0.58 0.55 0.53 0.51 0.50 0.48 0.46 0.46 0.53 0.51 0.53 0.58 0.54 0.52 0.52 0.58 0.61 0.60 0.68 0.75
0.84 0.80 0.76 0.73 0.75 0.74 0.71 0.70 0.65 0.59 0.49 0.42 0.39 0.37 0.39 0.39 0.34 0.36 0.42 0.48 0.47 0.50 0.51 0.49 0.49 0.48 0.46 0.46 0.47 0.48 0.53 0.52 0.53 0.55 0.53 0.49 0.48 0.48 0.46 0.50 0.55 0.57 0.62
0.76 0.76 0.77 0.76 0.75 0.71 0.66 0.57 0.47 0.45 0.42 0.43 0.37 0.35 0.32 0.32 0.33 0.33 0.35 0.36 0.39 0.44 0.44 0.45 0.43 0.42 0.40 0.39 0.40 0.43 0.45 0.50 0.52 0.49 0.47 0.44 0.43 0.44 0.47 0.43 0.45 0.51 0.57
0.79 0.79 0.78 0.75 0.70 0.58 0.51 0.48 0.45 0.41 0.42 0.42 0.34 0.31 0.27 0.30 0.33 0.33 0.33 0.34 0.35 0.38 0.39 0.40 0.40 0.39 0.38 0.39 0.37 0.36 0.42 0.43 0.43 0.44 0.43 0.42 0.41 0.44 0.45 0.46 0.43 0.43 0.49
0.81 0.77 0.72 0.66 0.57 0.56 0.51 0.47 0.43 0.43 0.38 0.39 0.37 0.35 0.28 0.26 0.28 0.31 0.29 0.29 0.28 0.29 0.31 0.32 0.32 0.33 0.35 0.35 0.33 0.30 0.33 0.38 0.36 0.33 0.33 0.36 0.38 0.40 0.51 0.50 0.49 0.42 0.43
0.76 0.72 0.66 0.62 0.62 0.57 0.47 0.45 0.46 0.45 0.42 0.37 0.40 0.38 0.35 0.33 0.25 0.22 0.29 0.29 0.29 0.28 0.27 0.27 0.29 0.30 0.31 0.31 0.30 0.29 0.31 0.31 0.30 0.30 0.31 0.31 0.32 0.36 0.41 0.52 0.50 0.45 0.41
0.75 0.66 0.61 0.58 0.52 0.48 0.43 0.44 0.47 0.47 0.45 0.42 0.38 0.36 0.35 0.33 0.31 0.27 0.22 0.23 0.24 0.26 0.26 0.27 0.28 0.29 0.29 0.29 0.27 0.28 0.32 0.33 0.34 0.32 0.31 0.29 0.29 0.29 0.35 0.41 0.49 0.49 0.46
0.63 0.55 0.52 0.47 0.42 0.38 0.38 0.40 0.45 0.48 0.47 0.44 0.42 0.40 0.38 0.34 0.32 0.31 0.26 0.26 0.26 0.26 0.27 0.27 0.27 0.29 0.29 0.29 0.29 0.28 0.29 0.28 0.27 0.27 0.27 0.27 0.28 0.29 0.30 0.36 0.40 0.45 0.46
0.53 0.49 0.43 0.40 0.39 0.38 0.39 0.41 0.45 0.47 0.46 0.42 0.45 0.43 0.44 0.40 0.41 0.37 0.33 0.28 0.26 0.27 0.27 0.28 0.28 0.29 0.28 0.27 0.27 0.28 0.27 0.26 0.27 0.27 0.27 0.26 0.26 0.27 0.32 0.34 0.34 0.40 0.42
0.51 0.44 0.41 0.42 0.39 0.39 0.39 0.41 0.46 0.46 0.46 0.46 0.44 0.44 0.44 0.46 0.46 0.42 0.37 0.31 0.26 0.25 0.26 0.26 0.27 0.26 0.27 0.26 0.28 0.26 0.26 0.26 0.26 0.26 0.27 0.26 0.25 0.25 0.25 0.29 0.31 0.33 0.41
0.43 0.42 0.44 0.40 0.41 0.41 0.41 0.40 0.39 0.43 0.43 0.43 0.43 0.44 0.46 0.46 0.46 0.43 0.38 0.36 0.31 0.25 0.22 0.24 0.21 0.25 0.27 0.26 0.25 0.25 0.25 0.27 0.28 0.28 0.27 0.26 0.26 0.27 0.28 0.27 0.27 0.27 0.34
0.43 0.43 0.42 0.43 0.42 0.42 0.42 0.42 0.42 0.41 0.40 0.39 0.42 0.44 0.45 0.45 0.42 0.38 0.36 0.35 0.33 0.28 0.20 0.21 0.22 0.24 0.24 0.23 0.23 0.24 0.27 0.27 0.26 0.26 0.26 0.26 0.28 0.29 0.29 0.30 0.27 0.27 0.30
0.44 0.44 0.46 0.45 0.41 0.41 0.41 0.40 0.39 0.34 0.33 0.35 0.36 0.38 0.43 0.41 0.37 0.36 0.34 0.31 0.26 0.22 0.18 0.19 0.20 0.21 0.21 0.22 0.22 0.26 0.26 0.25 0.25 0.27 0.28 0.27 0.29 0.31 0.31 0.30 0.31 0.30 0.26
0.47 0.47 0.50 0.46 0.40 0.40 0.40 0.38 0.36 0.37 0.33 0.36 0.36 0.37 0.37 0.36 0.32 0.30 0.27 0.22 0.19 0.19 0.18 0.16 0.19 0.19 0.21 0.22 0.25 0.25 0.25 0.27 0.27 0.27 0.26 0.28 0.28 0.31 0.31 0.32 0.34 0.31 0.28
0.46 0.51 0.49 0.42 0.40 0.40 0.40 0.38 0.38 0.35 0.36 0.36 0.35 0.33 0.31 0.29 0.25 0.22 0.19 0.19 0.18 0.18 0.18 0.17 0.17 0.19 0.22 0.24 0.23 0.24 0.25 0.27 0.28 0.29 0.27 0.26 0.27 0.29 0.32 0.35 0.34 0.34 0.31
0.47 0.48 0.44 0.40 0.40 0.41 0.41 0.38 0.36 0.35 0.34 0.32 0.32 0.30 0.27 0.22 0.20 0.19 0.18 0.17 0.17 0.17 0.17 0.17 0.18 0.19 0.21 0.23 0.24 0.22 0.23 0.26 0.26 0.26 0.25 0.24 0.26 0.28 0.33 0.36 0.36 0.33 0.29
0.46 0.46 0.40 0.41 0.41 0.41 0.40 0.36 0.35 0.31 0.30 0.28 0.27 0.25 0.23 0.21 0.20 0.19 0.18 0.18 0.18 0.18 0.17 0.17 0.17 0.19 0.21 0.20 0.19 0.25 0.26 0.25 0.24 0.25 0.24 0.24 0.28 0.30 0.32 0.35 0.38 0.35 0.33
0.48 0.43 0.42 0.39 0.38 0.40 0.38 0.35 0.33 0.29 0.26 0.23 0.22 0.22 0.21 0.21 0.21 0.20 0.21 0.21 0.20 0.18 0.17 0.19 0.20 0.21 0.21 0.23 0.25 0.24 0.22 0.21 0.18 0.23 0.23 0.21 0.25 0.25 0.30 0.39 0.41 0.39 0.41
0.41 0.38 0.40 0.40 0.39 0.39 0.37 0.35 0.32 0.29 0.24 0.23 0.23 0.21 0.20 0.21 0.21 0.21 0.20 0.19 0.16 0.19 0.20 0.20 0.20 0.22 0.22 0.22 0.23 0.21 0.20 0.20 0.19 0.21 0.22 0.18 0.22 0.23 0.28 0.30 0.34 0.33 0.35
0.37 0.39 0.40 0.37 0.37 0.39 0.36 0.34 0.32 0.29 0.26 0.23 0.24 0.22 0.21 0.21 0.20 0.18 0.17 0.14 0.15 0.17 0.19 0.21 0.21 0.20 0.21 0.23 0.24 0.23 0.22 0.21 0.23 0.24 0.26 0.19 0.23 0.23 0.26 0.27 0.27 0.27 0.27
0.36 0.37 0.38 0.36 0.35 0.37 0.35 0.33 0.31 0.30 0.26 0.23 0.23 0.23 0.22 0.21 0.20 0.19 0.16 0.13 0.14 0.15 0.19 0.20 0.19 0.20 0.24 0.27 0.27 0.27 0.24 0.22 0.20 0.22 0.26 0.23 0.24 0.27 0.26 0.24 0.28 0.28 0.27
0.37 0.38 0.37 0.37 0.36 0.35 0.35 0.33 0.31 0.29 0.23 0.22 0.23 0.22 0.21 0.20 0.19 0.19 0.15 0.13 0.13 0.15 0.16 0.17 0.19 0.23 0.25 0.28 0.28 0.28 0.28 0.22 0.23 0.21 0.25 0.24 0.24 0.24 0.22 0.29 0.31 0.36 0.31

GFSMA_prec_pwat_033.txt.gz
Precipitable_Water
1.15 1.18 1.15 1.12 1.09 1.08 1.05 1.03 0.95 0.86 0.80 0.73 0.70 0.65 0.62 0.61 0.56 0.52 0.51 0.54 0.50 0.52 0.60 0.62 0.64 0.63 0.61 0.58 0.56 0.54 0.54 0.56 0.59 0.61 0.62 0.64 0.67 0.74 0.77 0.80 0.84 0.89 0.86
1.06 1.04 1.04 1.03 1.01 1.00 0.99 0.89 0.82 0.74 0.71 0.69 0.65 0.62 0.56 0.51 0.48 0.47 0.46 0.40 0.45 0.49 0.52 0.60 0.61 0.59 0.59 0.55 0.54 0.52 0.50 0.50 0.53 0.55 0.58 0.60 0.62 0.63 0.69 0.73 0.75 0.79 0.85
1.02 1.00 0.99 0.98 0.97 0.98 0.91 0.78 0.73 0.70 0.67 0.64 0.60 0.54 0.50 0.46 0.44 0.42 0.38 0.38 0.42 0.48 0.53 0.58 0.57 0.55 0.56 0.53 0.53 0.53 0.52 0.52 0.51 0.49 0.55 0.58 0.58 0.59 0.60 0.63 0.68 0.72 0.76
1.03 1.00 0.99 0.93 0.86 0.78 0.71 0.68 0.68 0.65 0.65 0.59 0.48 0.42 0.42 0.42 0.39 0.35 0.36 0.39 0.49 0.59 0.63 0.59 0.56 0.56 0.55 0.54 0.55 0.52 0.51 0.53 0.54 0.61 0.59 0.55 0.53 0.54 0.55 0.57 0.60 0.61 0.66
0.99 0.97 0.88 0.77 0.75 0.70 0.68 0.69 0.68 0.63 0.52 0.47 0.43 0.40 0.39 0.37 0.36 0.35 0.36 0.39 0.42 0.46 0.53 0.57 0.50 0.48 0.48 0.52 0.52 0.52 0.55 0.51 0.56 0.56 0.55 0.53 0.50 0.44 0.45 0.49 0.53 0.56 0.58
0.91 0.83 0.74 0.73 0.73 0.72 0.70 0.67 0.56 0.54 0.48 0.44 0.40 0.37 0.36 0.33 0.34 0.34 0.34 0.35 0.38 0.41 0.43 0.42 0.43 0.42 0.43 0.44 0.45 0.46 0.47 0.51 0.51 0.48 0.46 0.46 0.47 0.45 0.42 0.42 0.45 0.49 0.53
0.77 0.75 0.74 0.73 0.74 0.70 0.64 0.58 0.51 0.47 0.43 0.42 0.35 0.33 0.32 0.35 0.33 0.33 0.32 0.31 0.32 0.34 0.36 0.37 0.38 0.40 0.40 0.40 0.40 0.41 0.40 0.44 0.44 0.41 0.40 0.44 0.42 0.40 0.41 0.45 0.45 0.45 0.47
0.75 0.76 0.77 0.74 0.70 0.63 0.57 0.52 0.49 0.43 0.41 0.41 0.34 0.33 0.26 0.29 0.33 0.33 0.32 0.31 0.31 0.31 0.31 0.33 0.35 0.36 0.37 0.36 0.35 0.34 0.32 0.34 0.34 0.32 0.34 0.36 0.37 0.36 0.37 0.39 0.48 0.48 0.46
0.76 0.75 0.71 0.69 0.68 0.65 0.55 0.50 0.46 0.41 0.37 0.41 0.41 0.34 0.28 0.25 0.29 0.31 0.30 0.30 0.27 0.27 0.28 0.28 0.28 0.28 0.29 0.29 0.29 0.30 0.30 0.31 0.32 0.33 0.32 0.32 0.34 0.35 0.34 0.35 0.40 0.49 0.50
0.74 0.71 0.74 0.76 0.66 0.58 0.52 0.48 0.45 0.42 0.41 0.36 0.39 0.40 0.38 0.36 0.28 0.23 0.30 0.30 0.30 0.29 0.26 0.26 0.25 0.25 0.26 0.28 0.30 0.30 0.31 0.32 0.29 0.30 0.31 0.31 0.32 0.33 0.34 0.33 0.33 0.42 0.49
0.71 0.71 0.71 0.67 0.56 0.52 0.48 0.40 0.38 0.41 0.46 0.43 0.42 0.43 0.41 0.38 0.35 0.30 0.23 0.27 0.33 0.32 0.31 0.29 0.26 0.25 0.25 0.26 0.27 0.29 0.30 0.30 0.29 0.28 0.28 0.30 0.30 0.31 0.32 0.32 0.33 0.33 0.43
0.66 0.67 0.66 0.59 0.52 0.46 0.36 0.36 0.38 0.42 0.44 0.46 0.45 0.44 0.40 0.37 0.35 0.33 0.30 0.31 0.30 0.30 0.32 0.32 0.28 0.27 0.28 0.28 0.27 0.27 0.28 0.29 0.29 0.29 0.29 0.29 0.30 0.30 0.30 0.30 0.31 0.34 0.38
0.64 0.63 0.61 0.53 0.45 0.37 0.35 0.37 0.39 0.41 0.43 0.42 0.42 0.43 0.44 0.43 0.44 0.41 0.38 0.36 0.33 0.31 0.30 0.31 0.30 0.29 0.29 0.28 0.23 0.27 0.26 0.25 0.24 0.25 0.27 0.28 0.28 0.29 0.29 0.29 0.29 0.30 0.36
0.66 0.61 0.58 0.48 0.41 0.39 0.40 0.39 0.38 0.40 0.46 0.47 0.45 0.45 0.44 0.44 0.45 0.44 0.42 0.38 0.33 0.30 0.29 0.27 0.28 0.28 0.29 0.25 0.25 0.26 0.25 0.25 0.24 0.25 0.26 0.27 0.28 0.28 0.28 0.28 0.29 0.30 0.30
0.62 0.57 0.49 0.49 0.48 0.44 0.41 0.41 0.42 0.42 0.43 0.43 0.42 0.42 0.42 0.43 0.46 0.47 0.46 0.42 0.34 0.26 0.23 0.25 0.25 0.26 0.23 0.24 0.25 0.24 0.24 0.23 0.23 0.24 0.24 0.25 0.26 0.26 0.27 0.29 0.31 0.31 0.33
0.60 0.54 0.47 0.47 0.45 0.43 0.41 0.45 0.45 0.43 0.40 0.40 0.38 0.36 0.37 0.40 0.40 0.43 0.43 0.38 0.34 0.29 0.22 0.24 0.20 0.20 0.22 0.23 0.22 0.22 0.21 0.22 0.23 0.24 0.25 0.26 0.27 0.28 0.27 0.28 0.31 0.31 0.32
0.65 0.51 0.48 0.48 0.47 0.44 0.42 0.44 0.42 0.40 0.38 0.35 0.36 0.37 0.36 0.38 0.39 0.38 0.35 0.32 0.30 0.25 0.17 0.17 0.18 0.19 0.18 0.19 0.19 0.21 0.23 0.23 0.25 0.25 0.27 0.26 0.27 0.27 0.28 0.29 0.30 0.30 0.31
0.60 0.54 0.51 0.48 0.47 0.46 0.44 0.42 0.40 0.41 0.38 0.36 0.36 0.37 0.34 0.35 0.31 0.30 0.28 0.24 0.19 0.18 0.16 0.13 0.15 0.16 0.17 0.19 0.20 0.20 0.22 0.24 0.24 0.26 0.28 0.27 0.28 0.29 0.28 0.29 0.30 0.31 0.31
0.57 0.54 0.48 0.46 0.48 0.46 0.43 0.43 0.42 0.42 0.40 0.37 0.36 0.33 0.32 0.29 0.25 0.23 0.19 0.17 0.17 0.17 0.16 0.15 0.14 0.16 0.17 0.19 0.19 0.22 0.23 0.24 0.25 0.26 0.27 0.27 0.27 0.27 0.27 0.26 0.29 0.31 0.35
0.57 0.50 0.45 0.46 0.49 0.44 0.43 0.43 0.41 0.42 0.39 0.35 0.32 0.31 0.28 0.25 0.22 0.20 0.18 0.17 0.17 0.16 0.16 0.15 0.14 0.15 0.18 0.20 0.22 0.21 0.22 0.24 0.23 0.24 0.24 0.24 0.26 0.26 0.25 0.26 0.28 0.29 0.33
0.52 0.45 0.48 0.47 0.41 0.44 0.44 0.41 0.40 0.40 0.36 0.32 0.29 0.26 0.24 0.23 0.22 0.20 0.17 0.17 0.18 0.17 0.16 0.14 0.15 0.16 0.17 0.19 0.20 0.23 0.20 0.20 0.20 0.21 0.21 0.22 0.23 0.22 0.22 0.25 0.28 0.32 0.35
0.47 0.50 0.43 0.44 0.45 0.44 0.43 0.42 0.40 0.37 0.34 0.29 0.24 0.23 0.23 0.23 0.21 0.21 0.20 0.20 0.20 0.17 0.13 0.14 0.16 0.16 0.18 0.21 0.21 0.19 0.20 0.18 0.16 0.21 0.21 0.19 0.23 0.21 0.22 0.24 0.29 0.34 0.40
0.46 0.43 0.44 0.44 0.42 0.44 0.44 0.40 0.39 0.36 0.31 0.29 0.27 0.24 0.23 0.23 0.21 0.20 0.20 0.19 0.17 0.15 0.15 0.16 0.16 0.18 0.17 0.19 0.19 0.20 0.21 0.21 0.20 0.21 0.23 0.20 0.24 0.22 0.24 0.26 0.28 0.31 0.34
0.46 0.45 0.41 0.41 0.41 0.41 0.41 0.38 0.35 0.33 0.31 0.30 0.29 0.25 0.23 0.22 0.21 0.20 0.18 0.16 0.15 0.12 0.14 0.17 0.19 0.18 0.19 0.21 0.24 0.25 0.25 0.24 0.24 0.23 0.26 0.20 0.24 0.22 0.25 0.27 0.29 0.30 0.32
0.43 0.39 0.39 0.39 0.38 0.38 0.37 0.36 0.34 0.32 0.32 0.30 0.29 0.24 0.23 0.22 0.21 0.20 0.17 0.16 0.13 0.12 0.16 0.17 0.18 0.20 0.22 0.24 0.27 0.28 0.24 0.22 0.19 0.20 0.25 0.25 0.23 0.22 0.23 0.23 0.30 0.31 0.31
0.38 0.37 0.37 0.37 0.35 0.34 0.35 0.35 0.33 0.31 0.30 0.29 0.26 0.24 0.23 0.21 0.20 0.20 0.18 0.15 0.11 0.13 0.15 0.16 0.17 0.18 0.21 0.24 0.26 0.26 0.25 0.21 0.20 0.19 0.24 0.24 0.25 0.25 0.19 0.24 0.25 0.28 0.30

GFSMA_prec_pwat_036.txt.gz
Precipitable_Water
1.12 1.07 1.04 1.00 1.00 0.99 0.97 0.95 0.93 0.87 0.79 0.74 0.67 0.62 0.58 0.54 0.49 0.47 0.46 0.46 0.48 0.47 0.55 0.63 0.62 0.61 0.61 0.58 0.55 0.55 0.53 0.53 0.52 0.53 0.57 0.60 0.61 0.62 0.64 0.66 0.70 0.73 0.76
1.08 1.06 0.97 0.95 0.95 0.96 0.95 0.93 0.86 0.75 0.67 0.65 0.61 0.58 0.51 0.47 0.46 0.44 0.42 0.39 0.41 0.47 0.54 0.60 0.57 0.59 0.56 0.57 0.56 0.54 0.53 0.54 0.50 0.53 0.55 0.55 0.56 0.58 0.58 0.58 0.61 0.65 0.68
0.99 0.97 0.94 0.93 0.94 0.94 0.90 0.81 0.70 0.65 0.64 0.61 0.57 0.50 0.44 0.43 0.41 0.38 0.37 0.38 0.44 0.58 0.62 0.59 0.56 0.58 0.56 0.56 0.54 0.52 0.52 0.52 0.53 0.57 0.55 0.54 0.50 0.47 0.49 0.53 0.56 0.57 0.60
0.97 0.95 0.93 0.91 0.92 0.85 0.73 0.66 0.64 0.63 0.60 0.56 0.46 0.42 0.42 0.40 0.39 0.36 0.36 0.39 0.45 0.59 0.59 0.57 0.53 0.52 0.52 0.55 0.55 0.54 0.55 0.54 0.53 0.55 0.55 0.49 0.46 0.44 0.41 0.44 0.49 0.52 0.54
0.97 0.93 0.89 0.86 0.78 0.70 0.65 0.65 0.65 0.63 0.52 0.46 0.48 0.45 0.41 0.39 0.37 0.35 0.36 0.36 0.41 0.47 0.48 0.44 0.43 0.42 0.42 0.44 0.45 0.46 0.48 0.49 0.52 0.52 0.50 0.49 0.47 0.44 0.42 0.40 0.43 0.48 0.51
0.93 0.87 0.82 0.74 0.70 0.66 0.66 0.65 0.60 0.54 0.51 0.50 0.46 0.41 0.39 0.38 0.39 0.37 0.35 0.35 0.34 0.35 0.36 0.36 0.36 0.37 0.40 0.40 0.41 0.42 0.42 0.44 0.48 0.47 0.45 0.42 0.39 0.40 0.40 0.40 0.39 0.42 0.51
0.85 0.78 0.72 0.69 0.69 0.68 0.66 0.61 0.59 0.53 0.49 0.47 0.40 0.39 0.38 0.41 0.37 0.36 0.37 0.35 0.33 0.32 0.32 0.32 0.33 0.34 0.35 0.37 0.37 0.38 0.38 0.38 0.41 0.40 0.36 0.36 0.36 0.35 0.35 0.37 0.37 0.37 0.42
0.78 0.72 0.70 0.68 0.70 0.66 0.67 0.65 0.57 0.50 0.47 0.46 0.38 0.36 0.30 0.33 0.37 0.37 0.34 0.34 0.31 0.30 0.29 0.29 0.28 0.28 0.28 0.29 0.30 0.31 0.32 0.32 0.32 0.33 0.34 0.33 0.32 0.33 0.33 0.34 0.35 0.36 0.36
0.74 0.72 0.70 0.68 0.72 0.74 0.71 0.61 0.56 0.49 0.42 0.43 0.43 0.36 0.30 0.29 0.34 0.36 0.36 0.35 0.34 0.33 0.32 0.32 0.29 0.27 0.26 0.25 0.25 0.25 0.27 0.28 0.31 0.32 0.32 0.32 0.32 0.32 0.34 0.33 0.34 0.34 0.35
0.74 0.71 0.71 0.72 0.73 0.72 0.64 0.59 0.54 0.48 0.43 0.38 0.42 0.43 0.43 0.41 0.32 0.29 0.35 0.37 0.37 0.36 0.34 0.33 0.30 0.29 0.28 0.26 0.25 0.25 0.25 0.27 0.28 0.30 0.31 0.31 0.31 0.32 0.33 0.34 0.33 0.33 0.33
0.73 0.73 0.72 0.70 0.69 0.65 0.61 0.55 0.49 0.41 0.43 0.42 0.43 0.45 0.44 0.41 0.39 0.35 0.30 0.32 0.37 0.38 0.37 0.37 0.33 0.32 0.31 0.29 0.28 0.26 0.25 0.26 0.29 0.31 0.31 0.30 0.30 0.30 0.32 0.34 0.33 0.31 0.31
0.73 0.73 0.72 0.71 0.69 0.60 0.57 0.46 0.42 0.43 0.42 0.44 0.45 0.45 0.42 0.38 0.37 0.36 0.31 0.32 0.33 0.36 0.38 0.40 0.37 0.34 0.31 0.30 0.29 0.29 0.29 0.29 0.26 0.27 0.29 0.29 0.28 0.28 0.29 0.31 0.32 0.32 0.31
0.71 0.67 0.70 0.69 0.63 0.60 0.46 0.39 0.39 0.39 0.40 0.43 0.45 0.44 0.45 0.43 0.43 0.40 0.37 0.35 0.34 0.36 0.37 0.37 0.37 0.33 0.31 0.29 0.29 0.29 0.27 0.24 0.25 0.26 0.27 0.28 0.28 0.26 0.26 0.27 0.30 0.31 0.31
0.67 0.70 0.69 0.71 0.60 0.52 0.47 0.44 0.39 0.41 0.44 0.44 0.43 0.44 0.43 0.43 0.44 0.41 0.41 0.36 0.31 0.32 0.33 0.32 0.34 0.31 0.29 0.27 0.25 0.24 0.24 0.24 0.25 0.25 0.25 0.24 0.22 0.23 0.25 0.27 0.28 0.29 0.30
0.70 0.74 0.68 0.61 0.57 0.56 0.50 0.45 0.44 0.42 0.42 0.43 0.42 0.41 0.39 0.39 0.41 0.45 0.44 0.41 0.35 0.27 0.26 0.29 0.27 0.28 0.25 0.22 0.21 0.21 0.21 0.20 0.21 0.21 0.21 0.22 0.24 0.26 0.28 0.29 0.31 0.31 0.31
0.68 0.69 0.65 0.65 0.58 0.51 0.48 0.46 0.45 0.44 0.42 0.43 0.42 0.40 0.37 0.38 0.39 0.41 0.42 0.41 0.37 0.32 0.25 0.28 0.25 0.21 0.19 0.17 0.17 0.18 0.18 0.19 0.19 0.21 0.23 0.25 0.26 0.28 0.28 0.29 0.29 0.29 0.30
0.68 0.72 0.68 0.63 0.56 0.48 0.47 0.48 0.49 0.44 0.41 0.42 0.45 0.41 0.39 0.40 0.37 0.36 0.34 0.31 0.30 0.28 0.22 0.18 0.17 0.17 0.15 0.15 0.16 0.18 0.19 0.20 0.21 0.23 0.25 0.25 0.27 0.27 0.26 0.28 0.29 0.28 0.30
0.74 0.65 0.62 0.58 0.53 0.49 0.47 0.48 0.47 0.43 0.44 0.43 0.43 0.41 0.37 0.36 0.34 0.31 0.28 0.25 0.22 0.20 0.17 0.13 0.14 0.15 0.14 0.16 0.17 0.18 0.20 0.21 0.22 0.24 0.24 0.25 0.24 0.24 0.26 0.28 0.29 0.28 0.27
0.63 0.61 0.58 0.55 0.52 0.49 0.49 0.48 0.45 0.45 0.44 0.45 0.44 0.39 0.35 0.33 0.29 0.26 0.24 0.21 0.20 0.19 0.18 0.15 0.14 0.16 0.14 0.16 0.17 0.20 0.21 0.22 0.23 0.22 0.21 0.21 0.22 0.23 0.26 0.27 0.26 0.26 0.27
0.61 0.60 0.57 0.52 0.49 0.50 0.49 0.45 0.45 0.44 0.45 0.43 0.41 0.37 0.33 0.28 0.24 0.22 0.21 0.19 0.19 0.17 0.17 0.16 0.14 0.13 0.14 0.17 0.19 0.19 0.18 0.20 0.18 0.21 0.21 0.22 0.24 0.25 0.24 0.23 0.23 0.23 0.26
0.61 0.61 0.53 0.50 0.50 0.48 0.46 0.45 0.45 0.44 0.42 0.39 0.39 0.33 0.28 0.26 0.24 0.23 0.20 0.18 0.19 0.17 0.16 0.14 0.11 0.12 0.13 0.15 0.17 0.19 0.18 0.18 0.20 0.21 0.21 0.22 0.24 0.23 0.23 0.23 0.23 0.22 0.25
0.64 0.57 0.52 0.50 0.46 0.45 0.45 0.45 0.43 0.41 0.40 0.36 0.32 0.29 0.29 0.27 0.24 0.22 0.22 0.21 0.20 0.17 0.14 0.12 0.11 0.11 0.14 0.16 0.18 0.17 0.17 0.19 0.17 0.23 0.23 0.20 0.24 0.22 0.23 0.23 0.24 0.25 0.27
0.59 0.54 0.51 0.47 0.43 0.43 0.42 0.40 0.40 0.37 0.35 0.33 0.30 0.29 0.28 0.28 0.24 0.21 0.21 0.20 0.20 0.19 0.16 0.12 0.11 0.14 0.14 0.16 0.17 0.18 0.20 0.21 0.21 0.23 0.23 0.19 0.23 0.22 0.24 0.25 0.26 0.27 0.29
0.55 0.50 0.45 0.41 0.37 0.36 0.37 0.37 0.35 0.34 0.33 0.32 0.31 0.30 0.29 0.27 0.23 0.22 0.20 0.19 0.18 0.17 0.13 0.14 0.15 0.15 0.17 0.20 0.21 0.23 0.24 0.24 0.24 0.23 0.24 0.18 0.22 0.22 0.25 0.25 0.25 0.30 0.30
0.47 0.41 0.37 0.33 0.32 0.31 0.34 0.35 0.34 0.33 0.32 0.31 0.31 0.31 0.30 0.26 0.23 0.23 0.20 0.18 0.17 0.14 0.15 0.16 0.18 0.18 0.18 0.20 0.22 0.24 0.22 0.21 0.18 0.19 0.23 0.23 0.23 0.23 0.25 0.24 0.24 0.27 0.28
0.37 0.32 0.30 0.30 0.28 0.27 0.31 0.32 0.32 0.32 0.32 0.30 0.30 0.30 0.28 0.23 0.23 0.22 0.20 0.18 0.14 0.12 0.14 0.15 0.17 0.17 0.17 0.18 0.19 0.22 0.23 0.20 0.20 0.18 0.23 0.21 0.23 0.25 0.20 0.24 0.24 0.24 0.25

GFSMA_prec_pwat_042.txt.gz
Precipitable_Water
0.99 1.00 1.04 1.02 0.97 0.94 0.92 0.90 0.88 0.82 0.77 0.70 0.62 0.56 0.53 0.47 0.43 0.40 0.39 0.40 0.42 0.47 0.56 0.66 0.62 0.61 0.59 0.57 0.55 0.54 0.55 0.55 0.58 0.58 0.55 0.51 0.49 0.49 0.47 0.45 0.43 0.43 0.46
1.11 1.05 1.00 0.96 0.93 0.91 0.91 0.90 0.85 0.80 0.71 0.61 0.58 0.54 0.47 0.42 0.42 0.39 0.40 0.45 0.51 0.56 0.64 0.60 0.59 0.59 0.58 0.57 0.56 0.54 0.55 0.57 0.58 0.58 0.55 0.53 0.49 0.46 0.45 0.45 0.42 0.41 0.42
1.05 1.00 0.96 0.92 0.93 0.92 0.91 0.90 0.83 0.73 0.61 0.58 0.54 0.48 0.45 0.42 0.41 0.40 0.43 0.52 0.56 0.58 0.57 0.59 0.61 0.61 0.61 0.63 0.59 0.56 0.54 0.53 0.52 0.52 0.54 0.53 0.49 0.45 0.41 0.42 0.40 0.40 0.40
1.02 0.95 0.92 0.93 0.95 0.93 0.92 0.85 0.70 0.61 0.59 0.54 0.50 0.47 0.44 0.43 0.42 0.41 0.47 0.53 0.53 0.52 0.53 0.54 0.54 0.54 0.50 0.50 0.49 0.48 0.48 0.49 0.49 0.50 0.51 0.47 0.48 0.43 0.39 0.39 0.35 0.36 0.38
0.98 0.97 0.93 0.94 0.94 0.92 0.85 0.70 0.63 0.61 0.57 0.53 0.48 0.46 0.46 0.44 0.43 0.42 0.42 0.42 0.44 0.44 0.44 0.45 0.43 0.43 0.42 0.42 0.42 0.42 0.43 0.44 0.46 0.46 0.47 0.49 0.44 0.41 0.39 0.38 0.37 0.35 0.35
0.97 0.96 0.93 0.92 0.91 0.83 0.69 0.63 0.60 0.60 0.55 0.49 0.46 0.45 0.46 0.46 0.46 0.45 0.44 0.43 0.42 0.41 0.40 0.38 0.38 0.38 0.39 0.38 0.39 0.39 0.40 0.40 0.41 0.41 0.40 0.40 0.39 0.39 0.39 0.38 0.37 0.37 0.36
0.96 0.94 0.90 0.87 0.82 0.69 0.63 0.61 0.60 0.56 0.52 0.51 0.45 0.42 0.45 0.47 0.48 0.48 0.45 0.46 0.45 0.41 0.39 0.38 0.38 0.38 0.36 0.36 0.36 0.37 0.37 0.36 0.36 0.36 0.37 0.38 0.39 0.39 0.38 0.37 0.37 0.37 0.36
0.96 0.92 0.85 0.80 0.72 0.65 0.61 0.61 0.60 0.57 0.58 0.58 0.48 0.46 0.37 0.42 0.46 0.48 0.46 0.46 0.43 0.41 0.41 0.41 0.40 0.39 0.38 0.36 0.36 0.36 0.35 0.34 0.34 0.35 0.36 0.36 0.36 0.37 0.37 0.36 0.36 0.35 0.36
0.95 0.87 0.81 0.73 0.68 0.64 0.62 0.64 0.64 0.62 0.57 0.62 0.62 0.53 0.39 0.34 0.41 0.49 0.47 0.47 0.44 0.44 0.46 0.45 0.42 0.43 0.42 0.41 0.40 0.38 0.37 0.36 0.35 0.34 0.35 0.34 0.35 0.37 0.36 0.36 0.37 0.38 0.36
0.90 0.82 0.77 0.72 0.67 0.66 0.65 0.64 0.66 0.65 0.66 0.60 0.54 0.53 0.50 0.47 0.38 0.35 0.42 0.44 0.46 0.45 0.45 0.43 0.43 0.42 0.43 0.43 0.42 0.41 0.40 0.41 0.39 0.36 0.36 0.35 0.35 0.35 0.36 0.35 0.35 0.36 0.34
0.87 0.80 0.77 0.75 0.71 0.68 0.65 0.69 0.71 0.70 0.69 0.54 0.51 0.51 0.46 0.48 0.47 0.39 0.35 0.40 0.45 0.45 0.44 0.43 0.42 0.43 0.44 0.43 0.41 0.42 0.43 0.41 0.38 0.36 0.33 0.32 0.30 0.31 0.32 0.32 0.32 0.33 0.32
0.86 0.85 0.82 0.78 0.73 0.70 0.72 0.77 0.80 0.76 0.63 0.53 0.52 0.52 0.46 0.40 0.38 0.41 0.40 0.38 0.35 0.35 0.39 0.40 0.40 0.42 0.41 0.41 0.40 0.40 0.39 0.37 0.35 0.32 0.29 0.28 0.28 0.29 0.29 0.30 0.30 0.30 0.30
0.84 0.83 0.81 0.78 0.77 0.78 0.78 0.86 0.75 0.64 0.58 0.53 0.48 0.45 0.44 0.44 0.46 0.43 0.36 0.31 0.30 0.34 0.38 0.44 0.45 0.42 0.42 0.41 0.38 0.37 0.35 0.33 0.31 0.28 0.25 0.23 0.23 0.25 0.25 0.25 0.24 0.24 0.25
0.88 0.86 0.81 0.80 0.81 0.86 0.89 0.78 0.70 0.62 0.58 0.53 0.49 0.47 0.45 0.47 0.45 0.40 0.34 0.31 0.27 0.30 0.35 0.35 0.40 0.39 0.37 0.36 0.34 0.30 0.25 0.22 0.20 0.19 0.19 0.20 0.20 0.21 0.22 0.24 0.25 0.26 0.27
0.90 0.84 0.88 0.83 0.91 0.85 0.74 0.69 0.65 0.61 0.57 0.53 0.51 0.48 0.46 0.44 0.42 0.41 0.39 0.36 0.32 0.24 0.26 0.31 0.31 0.33 0.29 0.25 0.22 0.19 0.17 0.16 0.17 0.19 0.19 0.20 0.22 0.23 0.24 0.26 0.27 0.28 0.30
0.88 0.79 0.83 0.81 0.82 0.74 0.71 0.69 0.64 0.60 0.56 0.55 0.52 0.48 0.46 0.45 0.42 0.40 0.38 0.36 0.35 0.29 0.22 0.25 0.24 0.24 0.23 0.20 0.19 0.17 0.15 0.17 0.17 0.18 0.20 0.21 0.22 0.23 0.24 0.25 0.26 0.26 0.27
0.87 0.84 0.83 0.81 0.74 0.70 0.67 0.69 0.62 0.57 0.55 0.53 0.49 0.46 0.44 0.43 0.39 0.37 0.36 0.31 0.28 0.26 0.19 0.19 0.20 0.21 0.19 0.18 0.17 0.14 0.15 0.16 0.18 0.19 0.20 0.21 0.21 0.22 0.22 0.22 0.22 0.24 0.25
0.85 0.80 0.78 0.73 0.72 0.70 0.72 0.66 0.59 0.56 0.54 0.49 0.46 0.45 0.40 0.39 0.35 0.33 0.30 0.27 0.25 0.24 0.20 0.16 0.18 0.18 0.17 0.17 0.15 0.14 0.15 0.17 0.17 0.18 0.19 0.19 0.19 0.21 0.22 0.23 0.23 0.24 0.24
0.78 0.83 0.73 0.72 0.71 0.73 0.67 0.62 0.59 0.55 0.52 0.47 0.44 0.38 0.33 0.34 0.32 0.29 0.27 0.25 0.24 0.23 0.21 0.18 0.16 0.18 0.17 0.16 0.13 0.13 0.15 0.16 0.17 0.18 0.19 0.20 0.22 0.23 0.24 0.25 0.26 0.25 0.25
0.76 0.76 0.70 0.73 0.70 0.68 0.65 0.62 0.58 0.55 0.49 0.42 0.37 0.34 0.33 0.33 0.31 0.28 0.26 0.25 0.24 0.22 0.21 0.18 0.17 0.16 0.15 0.14 0.13 0.12 0.12 0.14 0.15 0.18 0.20 0.22 0.23 0.23 0.23 0.23 0.24 0.24 0.25
0.73 0.71 0.72 0.72 0.72 0.70 0.65 0.62 0.59 0.49 0.38 0.33 0.32 0.32 0.34 0.33 0.31 0.29 0.26 0.24 0.24 0.22 0.20 0.18 0.17 0.15 0.13 0.11 0.10 0.13 0.13 0.14 0.16 0.18 0.19 0.22 0.22 0.21 0.21 0.22 0.24 0.24 0.24
0.69 0.76 0.73 0.72 0.71 0.69 0.64 0.54 0.42 0.34 0.31 0.29 0.28 0.31 0.33 0.32 0.31 0.29 0.28 0.27 0.26 0.23 0.20 0.18 0.17 0.14 0.12 0.11 0.13 0.13 0.14 0.14 0.12 0.20 0.20 0.20 0.22 0.20 0.21 0.23 0.24 0.24 0.24
0.73 0.75 0.73 0.72 0.65 0.57 0.47 0.38 0.32 0.28 0.26 0.27 0.29 0.30 0.30 0.30 0.30 0.29 0.29 0.29 0.28 0.26 0.23 0.21 0.17 0.15 0.12 0.13 0.15 0.14 0.15 0.15 0.15 0.18 0.19 0.18 0.20 0.19 0.23 0.24 0.25 0.25 0.25
0.72 0.71 0.67 0.61 0.52 0.42 0.35 0.29 0.27 0.26 0.26 0.27 0.29 0.30 0.29 0.29 0.30 0.31 0.29 0.26 0.25 0.23 0.23 0.23 0.20 0.15 0.15 0.17 0.17 0.17 0.16 0.16 0.16 0.18 0.18 0.16 0.20 0.19 0.22 0.24 0.25 0.25 0.25
0.67 0.64 0.58 0.49 0.38 0.31 0.29 0.27 0.26 0.25 0.24 0.26 0.28 0.29 0.29 0.29 0.34 0.32 0.28 0.24 0.23 0.22 0.25 0.24 0.21 0.18 0.19 0.19 0.19 0.18 0.14 0.14 0.12 0.14 0.17 0.18 0.20 0.19 0.20 0.21 0.25 0.27 0.27
0.57 0.52 0.44 0.36 0.31 0.28 0.28 0.27 0.27 0.26 0.24 0.25 0.27 0.28 0.29 0.31 0.33 0.32 0.29 0.26 0.24 0.22 0.22 0.22 0.17 0.17 0.19 0.18 0.19 0.18 0.16 0.14 0.14 0.12 0.17 0.16 0.19 0.21 0.17 0.20 0.23 0.26 0.26

GFSMA_prec_pwat_045.txt.gz
Precipitable_Water
0.89 0.96 0.99 1.03 1.04 0.99 0.94 0.89 0.86 0.85 0.80 0.71 0.62 0.58 0.55 0.49 0.45 0.43 0.44 0.45 0.43 0.48 0.65 0.70 0.65 0.63 0.60 0.58 0.56 0.55 0.55 0.59 0.53 0.54 0.54 0.51 0.48 0.46 0.44 0.44 0.42 0.40 0.41
1.01 1.01 1.00 0.96 0.97 0.95 0.94 0.89 0.87 0.84 0.74 0.64 0.59 0.56 0.50 0.46 0.45 0.47 0.52 0.54 0.53 0.56 0.70 0.67 0.66 0.62 0.60 0.59 0.59 0.59 0.58 0.57 0.55 0.56 0.54 0.56 0.50 0.47 0.45 0.44 0.41 0.40 0.39
1.18 1.10 1.00 0.95 0.95 0.95 0.91 0.90 0.87 0.80 0.65 0.62 0.56 0.51 0.48 0.46 0.45 0.47 0.51 0.55 0.58 0.62 0.63 0.64 0.64 0.64 0.64 0.64 0.59 0.55 0.53 0.53 0.54 0.53 0.52 0.54 0.50 0.49 0.43 0.41 0.39 0.38 0.39
1.12 1.01 0.95 0.92 0.93 0.93 0.90 0.89 0.83 0.66 0.59 0.56 0.51 0.49 0.46 0.44 0.45 0.48 0.54 0.55 0.56 0.59 0.61 0.60 0.61 0.59 0.55 0.52 0.49 0.47 0.48 0.49 0.50 0.52 0.52 0.51 0.53 0.48 0.44 0.42 0.40 0.38 0.36
1.03 0.98 0.94 0.93 0.96 0.94 0.89 0.85 0.71 0.60 0.55 0.54 0.50 0.50 0.48 0.44 0.45 0.45 0.47 0.48 0.49 0.48 0.47 0.48 0.47 0.45 0.43 0.42 0.42 0.42 0.44 0.46 0.47 0.48 0.48 0.46 0.46 0.45 0.43 0.43 0.42 0.41 0.39
1.00 0.95 0.95 0.94 0.92 0.89 0.85 0.74 0.61 0.58 0.56 0.54 0.53 0.52 0.53 0.49 0.51 0.50 0.48 0.44 0.44 0.46 0.43 0.42 0.40 0.40 0.40 0.41 0.42 0.43 0.43 0.44 0.45 0.45 0.44 0.43 0.43 0.43 0.43 0.43 0.43 0.42 0.42
0.99 0.95 0.93 0.92 0.89 0.84 0.76 0.66 0.59 0.57 0.57 0.62 0.57 0.55 0.55 0.54 0.52 0.51 0.49 0.47 0.48 0.46 0.45 0.43 0.44 0.45 0.44 0.43 0.42 0.42 0.42 0.42 0.43 0.42 0.42 0.42 0.41 0.41 0.41 0.41 0.42 0.43 0.42
1.02 0.95 0.94 0.88 0.84 0.78 0.70 0.62 0.60 0.59 0.63 0.64 0.56 0.53 0.46 0.49 0.51 0.53 0.51 0.49 0.49 0.47 0.45 0.48 0.49 0.47 0.45 0.44 0.43 0.44 0.44 0.45 0.44 0.43 0.42 0.42 0.42 0.41 0.42 0.42 0.42 0.41 0.43
0.98 0.95 0.92 0.87 0.82 0.76 0.67 0.67 0.66 0.65 0.61 0.64 0.65 0.55 0.46 0.43 0.46 0.51 0.49 0.48 0.47 0.45 0.47 0.50 0.47 0.44 0.44 0.43 0.42 0.42 0.43 0.43 0.44 0.44 0.43 0.44 0.44 0.43 0.42 0.41 0.42 0.43 0.41
1.01 0.99 0.94 0.88 0.82 0.78 0.74 0.71 0.68 0.68 0.67 0.61 0.67 0.67 0.62 0.53 0.43 0.40 0.48 0.45 0.47 0.47 0.48 0.46 0.42 0.42 0.41 0.38 0.38 0.37 0.40 0.41 0.39 0.40 0.40 0.40 0.40 0.40 0.40 0.39 0.38 0.40 0.41
1.04 1.01 0.95 0.89 0.85 0.81 0.76 0.72 0.71 0.73 0.75 0.72 0.64 0.63 0.56 0.54 0.51 0.42 0.36 0.41 0.44 0.43 0.40 0.39 0.38 0.36 0.37 0.38 0.39 0.41 0.41 0.40 0.38 0.38 0.39 0.40 0.40 0.39 0.38 0.38 0.36 0.36 0.37
1.03 0.99 0.97 0.91 0.87 0.80 0.76 0.78 0.82 0.83 0.81 0.73 0.69 0.62 0.51 0.45 0.43 0.42 0.39 0.36 0.34 0.35 0.35 0.33 0.36 0.38 0.37 0.37 0.36 0.36 0.37 0.37 0.35 0.35 0.34 0.34 0.33 0.34 0.35 0.34 0.33 0.33 0.34
1.01 1.02 0.98 0.90 0.84 0.81 0.82 0.83 0.88 0.87 0.74 0.64 0.59 0.55 0.54 0.52 0.49 0.44 0.39 0.34 0.31 0.30 0.31 0.35 0.35 0.36 0.36 0.38 0.35 0.33 0.33 0.31 0.27 0.26 0.26 0.26 0.25 0.25 0.25 0.25 0.26 0.28 0.29
1.04 1.06 0.97 0.91 0.86 0.87 0.84 0.88 0.83 0.71 0.67 0.64 0.60 0.58 0.56 0.52 0.48 0.45 0.38 0.32 0.26 0.26 0.28 0.29 0.32 0.30 0.29 0.26 0.24 0.22 0.20 0.18 0.17 0.16 0.18 0.19 0.19 0.21 0.23 0.24 0.25 0.26 0.27
1.08 1.04 0.95 0.90 0.88 0.86 0.91 0.80 0.73 0.68 0.67 0.65 0.63 0.59 0.54 0.50 0.49 0.44 0.40 0.37 0.30 0.19 0.18 0.23 0.24 0.29 0.26 0.24 0.21 0.20 0.18 0.16 0.15 0.15 0.16 0.17 0.19 0.20 0.21 0.23 0.24 0.25 0.25
1.06 1.01 0.91 0.90 0.87 0.88 0.83 0.77 0.73 0.72 0.70 0.64 0.62 0.57 0.53 0.49 0.45 0.43 0.40 0.34 0.32 0.25 0.18 0.23 0.24 0.25 0.24 0.22 0.21 0.20 0.17 0.15 0.15 0.15 0.17 0.18 0.19 0.20 0.21 0.22 0.23 0.23 0.24
1.03 0.98 0.94 0.90 0.86 0.84 0.79 0.71 0.72 0.75 0.65 0.63 0.59 0.55 0.49 0.47 0.41 0.37 0.35 0.33 0.31 0.29 0.23 0.23 0.25 0.24 0.22 0.21 0.20 0.19 0.16 0.15 0.15 0.16 0.17 0.17 0.18 0.20 0.21 0.20 0.21 0.22 0.23
1.03 0.98 0.94 0.84 0.86 0.80 0.76 0.71 0.73 0.72 0.65 0.59 0.55 0.51 0.46 0.44 0.37 0.35 0.35 0.33 0.30 0.29 0.25 0.20 0.23 0.22 0.20 0.20 0.19 0.17 0.14 0.15 0.16 0.16 0.17 0.18 0.19 0.20 0.21 0.22 0.23 0.24 0.25
0.98 0.90 0.83 0.78 0.82 0.75 0.75 0.73 0.73 0.67 0.61 0.58 0.54 0.48 0.42 0.37 0.33 0.34 0.34 0.31 0.30 0.28 0.25 0.23 0.21 0.22 0.20 0.20 0.18 0.15 0.14 0.16 0.16 0.16 0.16 0.18 0.20 0.21 0.23 0.23 0.24 0.24 0.25
0.88 0.84 0.81 0.80 0.76 0.75 0.76 0.72 0.68 0.64 0.60 0.56 0.52 0.43 0.37 0.33 0.32 0.33 0.33 0.31 0.29 0.26 0.24 0.23 0.22 0.21 0.20 0.19 0.17 0.13 0.13 0.14 0.14 0.16 0.18 0.19 0.20 0.22 0.22 0.22 0.23 0.23 0.24
0.74 0.75 0.76 0.71 0.73 0.75 0.73 0.71 0.69 0.63 0.59 0.50 0.41 0.36 0.33 0.33 0.34 0.35 0.32 0.30 0.28 0.25 0.24 0.23 0.22 0.21 0.18 0.18 0.14 0.13 0.13 0.14 0.14 0.16 0.17 0.19 0.19 0.21 0.22 0.22 0.22 0.23 0.24
0.72 0.71 0.71 0.72 0.72 0.74 0.72 0.70 0.65 0.57 0.46 0.37 0.31 0.29 0.30 0.31 0.33 0.34 0.32 0.31 0.29 0.26 0.25 0.24 0.23 0.18 0.18 0.18 0.15 0.14 0.14 0.13 0.12 0.17 0.16 0.16 0.18 0.20 0.21 0.22 0.23 0.25 0.26
0.74 0.71 0.73 0.74 0.71 0.71 0.68 0.60 0.52 0.44 0.37 0.30 0.26 0.26 0.28 0.30 0.31 0.32 0.31 0.32 0.33 0.31 0.28 0.26 0.21 0.20 0.20 0.18 0.15 0.15 0.15 0.15 0.14 0.16 0.16 0.15 0.17 0.18 0.23 0.23 0.24 0.25 0.26
0.71 0.70 0.70 0.69 0.67 0.60 0.51 0.45 0.38 0.33 0.28 0.26 0.26 0.27 0.28 0.29 0.30 0.30 0.30 0.32 0.32 0.30 0.28 0.26 0.24 0.23 0.23 0.19 0.18 0.18 0.17 0.17 0.17 0.17 0.17 0.13 0.16 0.17 0.22 0.22 0.23 0.26 0.27
0.68 0.67 0.63 0.58 0.50 0.43 0.39 0.34 0.31 0.29 0.27 0.25 0.26 0.27 0.28 0.28 0.29 0.29 0.31 0.31 0.28 0.28 0.29 0.28 0.26 0.25 0.24 0.20 0.20 0.19 0.17 0.15 0.14 0.15 0.17 0.16 0.16 0.16 0.19 0.21 0.24 0.26 0.24
0.57 0.52 0.46 0.42 0.38 0.33 0.32 0.30 0.28 0.28 0.25 0.25 0.27 0.28 0.29 0.28 0.29 0.30 0.30 0.30 0.27 0.27 0.27 0.26 0.25 0.24 0.23 0.21 0.20 0.19 0.18 0.15 0.15 0.14 0.16 0.15 0.15 0.17 0.14 0.20 0.25 0.24 0.25

GFSMA_prec_pwat_048.txt.gz
Precipitable_Water
0.89 0.94 1.00 1.03 1.05 1.07 1.03 0.96 0.92 0.88 0.84 0.74 0.66 0.62 0.57 0.53 0.50 0.49 0.54 0.47 0.46 0.53 0.80 0.77 0.71 0.67 0.65 0.60 0.58 0.57 0.61 0.60 0.59 0.58 0.56 0.56 0.53 0.50 0.46 0.44 0.42 0.40 0.40
0.93 0.95 1.01 1.02 1.03 1.03 0.99 0.95 0.91 0.88 0.79 0.68 0.62 0.59 0.53 0.50 0.51 0.52 0.54 0.64 0.54 0.57 0.73 0.72 0.70 0.67 0.66 0.64 0.64 0.65 0.62 0.58 0.57 0.55 0.53 0.55 0.54 0.52 0.49 0.46 0.44 0.40 0.41
1.04 1.05 1.07 1.00 1.00 1.00 0.96 0.93 0.89 0.86 0.75 0.61 0.58 0.55 0.51 0.53 0.51 0.53 0.56 0.59 0.66 0.66 0.64 0.64 0.64 0.64 0.64 0.66 0.62 0.60 0.56 0.55 0.55 0.54 0.54 0.55 0.53 0.53 0.51 0.47 0.45 0.44 0.39
1.26 1.19 1.10 1.01 1.02 0.98 0.93 0.89 0.85 0.80 0.67 0.56 0.55 0.53 0.52 0.52 0.53 0.54 0.59 0.57 0.58 0.62 0.64 0.61 0.60 0.60 0.57 0.54 0.52 0.50 0.49 0.50 0.51 0.53 0.55 0.55 0.54 0.54 0.51 0.47 0.46 0.45 0.44
1.21 1.15 1.02 0.99 1.00 0.94 0.93 0.87 0.84 0.75 0.59 0.54 0.54 0.55 0.57 0.56 0.55 0.54 0.57 0.56 0.56 0.54 0.50 0.53 0.48 0.46 0.45 0.44 0.43 0.44 0.46 0.48 0.51 0.53 0.53 0.53 0.51 0.50 0.49 0.49 0.49 0.48 0.47
1.13 1.06 1.00 0.98 0.96 0.91 0.88 0.83 0.79 0.69 0.57 0.56 0.52 0.58 0.63 0.59 0.56 0.55 0.55 0.52 0.52 0.48 0.47 0.44 0.45 0.46 0.43 0.43 0.43 0.44 0.45 0.47 0.48 0.48 0.49 0.49 0.48 0.48 0.47 0.47 0.47 0.46 0.47
1.09 1.03 0.97 0.96 0.94 0.87 0.84 0.83 0.76 0.63 0.59 0.63 0.61 0.62 0.64 0.64 0.59 0.57 0.57 0.55 0.52 0.51 0.49 0.46 0.46 0.45 0.46 0.46 0.44 0.42 0.42 0.43 0.44 0.46 0.46 0.46 0.46 0.46 0.46 0.46 0.48 0.48 0.48
1.08 1.06 0.99 0.91 0.91 0.88 0.85 0.82 0.75 0.66 0.65 0.67 0.62 0.63 0.56 0.57 0.59 0.65 0.60 0.54 0.55 0.55 0.48 0.49 0.51 0.51 0.47 0.43 0.42 0.39 0.37 0.37 0.38 0.40 0.41 0.41 0.41 0.41 0.44 0.46 0.47 0.48 0.47
1.14 1.05 0.99 0.95 0.95 0.93 0.88 0.85 0.79 0.71 0.65 0.69 0.70 0.68 0.57 0.55 0.54 0.57 0.61 0.60 0.56 0.54 0.53 0.51 0.51 0.48 0.44 0.42 0.39 0.38 0.38 0.36 0.37 0.40 0.41 0.43 0.43 0.43 0.43 0.42 0.42 0.43 0.43
1.20 1.14 1.08 1.01 1.01 0.97 0.90 0.87 0.82 0.75 0.71 0.68 0.73 0.77 0.74 0.67 0.55 0.49 0.55 0.55 0.58 0.56 0.53 0.51 0.45 0.43 0.43 0.39 0.37 0.37 0.37 0.37 0.37 0.39 0.39 0.40 0.41 0.43 0.43 0.44 0.44 0.45 0.44
1.20 1.13 1.08 1.04 1.01 0.97 0.93 0.88 0.82 0.77 0.78 0.78 0.76 0.75 0.70 0.66 0.63 0.51 0.44 0.44 0.49 0.49 0.47 0.42 0.39 0.40 0.41 0.41 0.37 0.39 0.33 0.31 0.30 0.30 0.31 0.33 0.35 0.38 0.39 0.40 0.41 0.43 0.45
1.14 1.13 1.12 1.10 1.05 1.01 0.96 0.89 0.83 0.83 0.84 0.83 0.80 0.71 0.63 0.57 0.52 0.51 0.46 0.45 0.42 0.43 0.40 0.40 0.39 0.38 0.37 0.33 0.31 0.28 0.29 0.30 0.29 0.28 0.28 0.26 0.25 0.26 0.27 0.30 0.33 0.35 0.35
1.07 1.10 1.11 1.09 1.06 1.04 0.97 0.89 0.86 0.85 0.85 0.80 0.77 0.67 0.64 0.60 0.58 0.53 0.48 0.44 0.40 0.36 0.35 0.36 0.35 0.34 0.33 0.33 0.34 0.28 0.26 0.23 0.21 0.20 0.19 0.18 0.20 0.21 0.22 0.23 0.24 0.26 0.29
1.12 1.14 1.12 1.10 1.07 1.02 0.96 0.89 0.87 0.89 0.85 0.78 0.72 0.67 0.65 0.63 0.61 0.55 0.49 0.42 0.36 0.34 0.30 0.27 0.31 0.33 0.34 0.31 0.30 0.25 0.23 0.22 0.21 0.18 0.17 0.17 0.18 0.18 0.19 0.21 0.22 0.24 0.26
1.17 1.17 1.15 1.09 1.06 1.01 0.91 0.91 0.89 0.86 0.80 0.75 0.72 0.72 0.71 0.64 0.61 0.55 0.51 0.45 0.38 0.27 0.24 0.25 0.24 0.30 0.32 0.32 0.30 0.26 0.24 0.22 0.20 0.16 0.16 0.16 0.17 0.18 0.19 0.21 0.23 0.24 0.25
1.16 1.14 1.12 1.08 1.00 0.96 0.91 0.88 0.85 0.79 0.81 0.74 0.74 0.74 0.68 0.63 0.59 0.56 0.50 0.45 0.37 0.30 0.24 0.27 0.26 0.29 0.31 0.29 0.28 0.24 0.23 0.21 0.18 0.16 0.16 0.16 0.17 0.18 0.19 0.20 0.21 0.22 0.23
1.16 1.14 1.12 1.03 0.98 0.94 0.90 0.84 0.79 0.80 0.74 0.75 0.75 0.68 0.65 0.62 0.56 0.52 0.48 0.42 0.36 0.32 0.27 0.27 0.29 0.29 0.29 0.27 0.27 0.26 0.24 0.20 0.16 0.15 0.16 0.16 0.17 0.18 0.19 0.19 0.20 0.21 0.23
1.15 1.10 1.07 1.01 1.01 0.89 0.85 0.81 0.80 0.80 0.75 0.71 0.69 0.65 0.62 0.58 0.54 0.50 0.45 0.39 0.36 0.35 0.31 0.25 0.27 0.27 0.27 0.27 0.26 0.24 0.22 0.19 0.16 0.17 0.17 0.15 0.17 0.17 0.18 0.20 0.22 0.23 0.24
1.10 1.05 1.02 0.98 0.90 0.79 0.80 0.80 0.76 0.75 0.73 0.71 0.69 0.64 0.60 0.57 0.51 0.46 0.42 0.39 0.37 0.36 0.32 0.28 0.26 0.27 0.27 0.27 0.25 0.24 0.21 0.17 0.18 0.16 0.15 0.16 0.17 0.18 0.20 0.21 0.23 0.23 0.23
0.97 0.93 0.86 0.83 0.77 0.81 0.80 0.77 0.74 0.72 0.72 0.70 0.67 0.63 0.59 0.54 0.44 0.40 0.38 0.37 0.37 0.33 0.31 0.29 0.27 0.25 0.26 0.26 0.25 0.21 0.18 0.16 0.16 0.17 0.17 0.18 0.19 0.20 0.21 0.22 0.23 0.23 0.22
0.79 0.79 0.76 0.77 0.81 0.79 0.77 0.75 0.74 0.72 0.70 0.68 0.65 0.61 0.51 0.43 0.39 0.37 0.34 0.34 0.36 0.32 0.30 0.28 0.25 0.25 0.24 0.24 0.21 0.21 0.18 0.16 0.17 0.18 0.17 0.18 0.19 0.19 0.20 0.22 0.23 0.24 0.26
0.69 0.70 0.71 0.71 0.70 0.73 0.75 0.74 0.72 0.69 0.67 0.60 0.48 0.42 0.38 0.36 0.33 0.32 0.33 0.35 0.34 0.33 0.30 0.28 0.26 0.26 0.24 0.24 0.23 0.22 0.17 0.16 0.14 0.19 0.17 0.16 0.19 0.19 0.19 0.21 0.23 0.23 0.24
0.68 0.68 0.69 0.70 0.72 0.73 0.73 0.71 0.67 0.57 0.48 0.41 0.37 0.34 0.32 0.31 0.32 0.32 0.34 0.34 0.33 0.33 0.31 0.30 0.29 0.28 0.25 0.25 0.24 0.21 0.17 0.17 0.17 0.18 0.17 0.15 0.19 0.18 0.20 0.21 0.24 0.23 0.25
0.64 0.67 0.67 0.68 0.68 0.66 0.61 0.51 0.43 0.38 0.35 0.34 0.33 0.32 0.29 0.28 0.31 0.33 0.32 0.32 0.31 0.32 0.32 0.31 0.31 0.28 0.27 0.27 0.25 0.21 0.20 0.20 0.20 0.20 0.19 0.15 0.19 0.18 0.21 0.21 0.22 0.24 0.25
0.63 0.63 0.62 0.58 0.52 0.48 0.43 0.37 0.34 0.33 0.32 0.31 0.31 0.30 0.29 0.29 0.30 0.31 0.30 0.29 0.29 0.30 0.34 0.33 0.32 0.31 0.28 0.27 0.25 0.22 0.20 0.18 0.17 0.18 0.20 0.17 0.18 0.17 0.18 0.19 0.23 0.27 0.27
0.54 0.50 0.44 0.41 0.38 0.34 0.34 0.31 0.30 0.29 0.28 0.28 0.29 0.29 0.31 0.30 0.29 0.30 0.29 0.28 0.27 0.28 0.31 0.33 0.29 0.29 0.29 0.29 0.28 0.24 0.22 0.18 0.18 0.17 0.20 0.17 0.17 0.17 0.15 0.18 0.22 0.23 0.24